[[{"header":{"parameterUnit":"m.s-1","parameterCategory":1,"la1":30.6,"la2":29.2853,"lo1":-89.7004,"lo2":-87.6739,"dy":0.0162,"dx":0.0183,"nx":112,"ny":82,"refTime":"2024-09-05T12:00:00:Z","depth":0,"parameterNumber":2,"parameterNumberName":"U-component_of_WINDS"},"data":[0.0,0.0,0.0,0.0,0.0,0.0,0.0,0.0,0.0,0.0,0.0,0.0,0.0,0.0,0.0,0.0,0.0,0.0,0.0,0.0,0.0,0.0,0.0,0.0,0.0,0.0,0.0,0.0,0.0,0.0,0.0,0.0,0.0,0.0,0.0,0.0,0.0,0.0,0.0,0.0,0.0,0.0,0.0,0.0,0.0,0.0,0.0,0.0,0.0,0.0,0.0,0.0,0.0,0.0,0.0,0.0,0.0,0.0,0.0,0.0,0.0,0.0,0.0,0.0,0.0,0.0,0.0,0.0,0.0,0.0,0.0,0.0,0.0,0.0,0.0,0.0,0.0,0.0,0.0,0.0,0.0,0.0,0.0,0.0,0.0,0.0,0.0,0.0,0.0,0.0,1.1189,1.1092,1.0869,1.0684,1.0684,1.0446,1.0148,0.9812,0.0,0.0,0.0,0.0,0.0,0.0,0.0,0.0,0.0,0.0,0.0,0.0,0.0,0.0,0.0,0.0,0.0,0.0,0.0,0.0,0.0,0.0,0.0,0.0,0.0,0.0,0.0,0.0,0.0,0.0,0.0,0.0,0.0,0.0,0.0,0.0,0.0,0.0,0.0,0.0,0.0,0.0,0.0,0.0,0.0,0.0,0.0,0.0,0.0,0.0,0.0,0.0,0.0,0.0,0.0,0.0,0.0,0.0,0.0,0.0,0.0,0.0,0.0,0.0,0.0,0.0,0.0,0.0,0.0,0.0,0.0,0.0,0.0,0.0,0.0,0.0,0.0,0.0,0.0,0.0,0.0,0.0,0.0,0.0,0.0,0.0,0.0,0.0,0.0,0.0,0.0,0.0,0.0,0.0,0.0,0.0,0.0,0.0,0.0,0.0,0.0,0.0,0.0,0.0,1.1449,1.1413,1.0995,1.0684,1.0684,1.0446,1.0148,0.9812,0.0,0.0,0.0,0.0,0.0,0.0,0.0,0.0,0.0,0.0,0.0,0.0,0.0,0.0,0.0,0.0,0.0,0.0,0.0,0.0,0.0,0.0,0.0,0.0,0.0,0.0,0.0,0.0,0.0,0.0,0.0,0.0,0.0,0.0,0.0,0.0,0.0,0.0,0.0,0.0,0.0,0.0,0.0,0.0,0.0,0.0,0.0,0.0,0.0,0.0,0.0,0.0,0.0,0.0,0.0,0.0,0.0,0.0,0.0,0.0,0.0,0.0,0.0,0.0,0.0,0.0,0.0,0.0,0.0,0.0,0.0,0.0,0.0,0.0,0.0,0.0,0.0,0.0,0.0,0.0,0.0,0.0,0.0,0.0,0.0,0.0,0.0,0.0,0.0,0.0,0.0,0.0,0.0,0.0,0.0,0.0,0.0,0.0,0.0,0.0,0.0,0.0,0.0,1.1298,1.1417,1.1645,1.1106,1.0684,1.0684,1.0446,1.0148,0.9812,0.9237,0.0,0.0,0.0,0.0,0.0,0.0,0.0,0.0,0.0,0.0,0.0,0.0,0.0,0.0,0.0,0.0,0.0,0.0,0.0,0.0,0.0,0.0,0.0,0.0,0.0,0.0,0.0,0.0,0.0,0.0,0.0,0.0,0.0,0.0,0.0,0.0,0.0,0.0,0.0,0.0,0.0,0.0,0.0,0.0,0.0,0.0,0.0,0.0,0.0,0.0,0.0,0.0,0.0,0.0,0.0,0.0,0.0,0.0,0.0,0.0,0.0,0.0,0.0,0.0,0.0,0.0,0.0,0.0,0.0,0.0,0.0,0.0,0.0,0.0,0.0,0.0,0.0,0.0,0.0,0.0,0.0,0.0,0.0,0.0,0.0,0.0,0.0,0.0,0.0,0.0,0.0,0.0,0.0,0.0,0.0,0.0,0.0,0.0,0.0,0.0,0.0,0.0,1.1557,1.1443,1.178,1.1148,1.0684,1.0684,1.0446,1.0148,0.9812,0.9237,0.0,0.0,0.0,0.0,0.0,0.0,0.0,0.0,0.0,0.0,0.0,0.0,0.0,0.0,0.0,0.0,0.0,0.0,0.0,0.0,0.0,0.0,0.0,0.0,0.0,0.0,0.0,0.0,0.0,0.0,0.0,0.0,0.0,0.0,0.0,0.0,0.0,0.0,0.0,0.0,0.0,0.0,0.0,0.0,0.0,0.0,0.0,0.0,0.0,0.0,0.0,0.0,0.0,0.0,0.0,0.0,0.0,0.0,0.0,0.0,0.0,0.0,0.0,0.0,0.0,0.0,0.0,0.0,0.0,0.0,0.0,0.0,0.0,0.0,0.0,0.0,0.0,0.0,0.0,0.0,0.0,0.0,0.0,0.0,0.0,0.0,0.0,0.0,0.0,0.0,0.0,0.0,0.0,0.0,0.0,0.0,0.0,0.0,0.0,0.0,0.0,0.0,1.1891,1.1707,1.178,1.1148,1.0684,1.0684,1.0446,1.0148,0.9812,0.9237,0.0,0.0,0.0,0.0,0.0,0.0,0.0,0.0,0.0,0.0,0.0,0.0,0.0,0.0,0.0,0.0,0.0,0.0,0.0,0.0,0.0,0.0,0.0,0.0,0.0,0.0,0.0,0.0,0.0,0.0,0.0,0.0,0.0,0.0,0.0,0.0,0.0,0.0,0.0,0.0,0.0,0.0,0.0,0.0,0.0,0.0,0.0,0.0,0.0,0.0,0.0,0.0,0.0,0.0,0.0,0.0,0.0,0.0,0.0,0.0,0.0,0.0,0.0,0.0,0.0,0.0,0.0,0.0,0.0,0.0,0.0,0.0,0.0,0.0,0.0,0.0,0.0,0.0,0.0,0.0,0.0,0.0,0.0,0.0,0.0,0.0,0.0,0.0,0.0,0.0,0.0,0.0,0.0,0.0,0.0,0.0,0.0,0.0,0.0,0.0,0.0,0.0,1.183,1.168,1.161,1.1135,1.0792,1.0698,1.0446,1.0148,0.9812,0.0,0.0,0.0,0.0,0.0,0.0,0.0,0.0,0.0,0.0,0.0,0.0,0.0,0.0,0.0,0.0,0.0,0.0,0.0,0.0,0.0,0.0,0.0,0.0,0.0,0.0,0.0,0.0,0.0,0.0,0.0,0.0,0.0,0.0,0.0,0.0,0.0,0.0,0.0,0.0,0.0,0.0,0.0,0.0,0.0,0.0,0.0,0.0,0.0,0.0,0.0,0.0,0.0,0.0,0.0,0.0,0.0,0.0,0.0,0.0,0.0,0.0,0.0,0.0,0.0,0.0,0.0,0.0,0.0,0.0,0.0,0.0,0.0,0.0,0.0,0.0,0.0,0.0,0.0,0.0,0.0,0.0,0.0,0.0,0.0,0.0,0.0,0.0,0.0,0.0,0.0,0.0,0.0,0.0,0.0,0.0,0.0,0.0,0.0,0.0,0.0,0.0,1.2104,1.1984,1.1792,1.1573,1.1179,1.0874,1.0765,1.048,1.0148,0.9812,0.0,0.0,0.0,0.0,0.0,0.0,0.0,0.0,0.0,0.0,0.0,0.0,0.0,0.0,0.0,0.0,0.0,0.0,0.0,0.0,0.0,0.0,0.0,0.0,0.0,0.0,0.0,0.0,0.0,0.0,0.0,0.0,0.0,0.0,0.0,0.0,0.0,0.0,0.0,0.0,0.0,0.0,0.0,0.0,0.0,0.0,0.0,0.0,0.0,0.0,0.0,0.0,0.0,0.0,0.0,0.0,0.0,0.0,0.0,0.0,0.0,0.0,0.0,0.0,0.0,0.0,0.0,0.0,0.0,0.0,0.0,0.0,0.0,0.0,0.0,0.0,0.0,0.0,0.0,0.0,0.0,0.0,0.0,0.0,0.0,0.0,0.0,0.0,0.0,0.0,0.0,0.0,0.0,0.0,0.0,0.0,0.0,0.0,0.0,0.0,0.0,0.0,1.2628,1.2354,1.207,1.1716,1.1207,1.0914,1.0914,1.0534,1.0148,0.0,0.0,0.0,0.0,0.0,0.0,0.0,0.0,0.0,0.0,0.0,0.0,0.0,0.0,0.0,0.0,0.0,0.0,0.0,0.0,0.0,0.0,0.0,0.0,0.0,0.0,0.0,0.0,0.0,0.0,0.0,0.0,0.0,0.0,0.0,0.0,0.0,0.0,0.0,0.0,0.0,0.0,0.0,0.0,0.0,0.0,0.0,0.0,0.0,0.0,0.0,0.0,0.0,0.0,0.0,0.0,0.0,0.0,0.0,0.0,0.0,0.0,0.0,0.0,0.0,0.0,0.0,0.0,0.0,0.0,0.0,0.0,0.0,0.0,0.0,0.0,0.0,0.0,0.0,0.0,0.0,0.0,0.0,0.0,0.0,0.0,0.0,0.0,0.0,0.0,0.0,0.0,0.0,0.0,0.0,0.0,0.0,0.0,0.0,0.0,0.0,0.0,0.0,1.2441,1.2275,1.203,1.1545,1.1255,1.1056,1.0921,1.0534,1.0148,0.9812,0.0,0.0,0.0,0.0,0.0,0.0,0.0,0.0,0.0,0.0,0.0,0.0,0.0,0.0,0.0,0.0,0.0,0.0,0.0,0.0,0.0,0.0,0.0,0.0,0.0,0.0,0.0,0.0,0.0,0.0,0.0,0.0,0.0,0.0,0.0,0.0,0.0,0.0,0.0,0.0,0.0,0.0,0.0,0.0,0.0,0.0,0.0,0.0,0.0,0.0,0.0,0.0,0.0,0.0,0.0,0.0,0.0,0.0,0.0,0.0,0.0,0.0,0.0,0.0,0.0,0.0,0.0,0.0,0.0,0.0,0.0,0.0,0.0,0.0,0.0,0.0,0.0,0.0,0.0,0.0,0.0,0.0,0.0,0.0,0.0,0.0,0.0,0.0,0.0,0.0,0.0,0.0,0.0,0.0,0.0,0.0,0.0,0.0,0.0,0.0,0.0,0.0,1.2532,1.2303,1.2004,1.1528,1.1348,1.1192,1.105,1.0622,1.0209,0.9812,0.0,0.0,0.0,0.0,0.0,0.0,0.0,0.0,0.0,0.0,0.0,0.0,0.0,0.0,0.0,0.0,0.0,0.0,0.0,0.0,0.0,0.0,0.0,0.0,0.0,0.0,0.0,0.0,0.0,0.0,0.0,0.0,0.0,0.0,0.0,0.0,0.0,0.0,0.0,0.0,0.0,0.0,0.0,0.0,0.0,0.0,0.0,0.0,0.0,0.0,0.0,0.0,0.0,0.0,0.0,0.0,0.0,0.0,0.0,0.0,0.0,0.0,0.0,0.0,0.0,0.0,0.0,0.0,0.0,0.0,0.0,0.0,0.0,0.0,0.0,0.0,0.0,0.0,0.0,0.0,0.0,0.0,0.0,0.0,0.0,0.0,0.0,0.0,0.0,0.0,0.0,0.0,0.0,0.0,0.0,0.0,0.0,0.0,0.0,0.0,0.0,0.0,1.2906,1.2522,1.2131,1.1693,1.1484,1.1363,1.1206,1.0765,1.0317,0.9839,0.0,0.0,0.0,0.0,0.0,0.0,0.0,0.0,0.0,0.0,0.0,0.0,0.0,0.0,0.0,0.0,0.0,0.0,0.0,0.0,0.0,0.0,0.0,0.0,0.0,0.0,0.0,0.0,0.0,0.0,0.0,0.0,0.0,0.0,0.0,0.0,0.0,0.0,0.0,0.0,0.0,0.0,0.0,0.0,0.0,0.0,0.0,0.0,0.0,0.0,0.0,0.0,0.0,0.0,0.0,0.0,0.0,0.0,0.0,0.0,1.7809,0.0,0.0,0.0,0.0,0.0,0.0,0.0,0.0,0.0,0.0,0.0,0.0,0.0,0.0,0.0,0.0,0.0,0.0,0.0,0.0,0.0,0.0,0.0,0.0,0.0,0.0,0.0,0.0,0.0,0.0,0.0,0.0,0.0,0.0,0.0,0.0,0.0,0.0,0.0,0.0,0.0,1.3874,1.3275,1.267,1.2137,1.1661,1.1363,1.1206,1.086,1.0447,0.9994,0.9663,0.0,0.0,0.0,0.0,0.0,0.0,0.0,0.0,0.0,0.0,0.0,0.0,0.0,0.0,0.0,0.0,0.0,0.0,0.0,0.0,0.0,0.0,0.0,0.0,0.0,0.0,0.0,0.0,0.0,0.0,0.0,0.0,0.0,0.0,0.0,0.0,0.0,0.0,0.0,0.0,0.0,0.0,0.0,0.0,0.0,0.0,0.0,0.0,0.0,0.0,0.0,0.0,0.0,0.0,0.0,0.0,0.0,0.0,0.0,0.0,1.8545,0.0,0.0,0.0,0.0,0.0,0.0,0.0,0.0,0.0,0.0,0.0,0.0,0.0,0.0,0.0,0.0,0.0,0.0,0.0,0.0,0.0,0.0,0.0,0.0,0.0,0.0,0.0,0.0,0.0,0.0,0.0,0.0,0.0,0.0,0.0,0.0,0.0,0.0,0.0,0.0,1.4267,1.36,1.297,1.2395,1.1906,1.1511,1.1329,1.1002,1.0637,1.0251,0.9954,0.0,0.0,0.0,0.0,0.0,0.0,0.0,0.0,0.0,0.0,0.0,0.0,0.0,0.0,0.0,0.0,0.0,0.0,0.0,0.0,0.0,0.0,0.0,0.0,0.0,0.0,0.0,0.0,0.0,0.0,0.0,0.0,0.0,0.0,0.0,0.0,0.0,0.0,0.0,0.0,0.0,0.0,0.0,0.0,0.0,0.0,0.0,0.0,0.0,0.0,0.0,0.0,0.0,2.1315,2.1475,2.189,2.189,2.189,2.1823,2.0552,2.0057,2.004,1.9212,0.0,0.0,0.0,0.0,0.0,0.0,0.0,0.0,0.0,0.0,0.0,0.0,0.0,0.0,0.0,0.0,0.0,0.0,0.0,0.0,0.0,0.0,0.0,0.0,2.1229,2.082,0.0,0.0,0.0,0.0,0.0,0.0,0.0,0.0,0.0,0.0,0.0,0.0,1.4626,1.3837,1.3184,1.267,1.2143,1.1685,1.1457,1.1144,1.0853,1.0555,1.0272,0.9934,0.0,0.0,0.0,0.0,0.0,0.0,0.0,0.0,0.0,0.0,0.0,0.0,0.0,0.0,0.0,0.0,0.0,0.0,0.0,0.0,0.0,0.0,0.0,0.0,0.0,0.0,0.0,0.0,0.0,0.0,0.0,0.0,1.8798,1.912,0.0,0.0,0.0,0.0,0.0,0.0,0.0,0.0,0.0,0.0,0.0,0.0,0.0,2.1189,2.1697,2.2278,2.2586,2.2666,2.3161,2.3273,2.3086,2.3086,2.3086,2.306,2.2639,0.0,2.1301,2.0672,0.0,0.0,0.0,0.0,0.0,0.0,0.0,0.0,0.0,0.0,0.0,0.0,0.0,0.0,0.0,0.0,0.0,0.0,0.0,0.0,0.0,0.0,2.1897,2.2519,2.2639,2.2559,0.0,2.0856,1.9633,2.012,1.9279,0.0,0.0,0.0,0.0,0.0,0.0,0.0,1.5403,1.4385,1.3555,1.3148,1.2316,1.1732,1.1606,1.143,1.1151,1.0684,1.0623,1.0432,1.0009,0.9815,0.0,0.0,0.0,0.0,0.0,0.0,0.0,0.0,0.0,0.0,0.0,0.0,0.0,0.0,0.0,0.0,0.0,0.0,0.0,0.0,0.0,0.0,0.0,0.0,0.0,0.0,0.0,0.0,0.0,1.9065,1.9653,2.0267,2.0094,1.9907,0.0,0.0,0.0,0.0,0.0,0.0,0.0,0.0,0.0,2.2305,2.2672,2.2979,2.3233,2.3647,2.3941,2.4151,2.4419,2.4529,2.4556,2.4556,2.4556,2.4543,2.4409,2.4048,2.3469,2.2178,2.1483,2.1176,0.0,0.0,0.0,0.0,2.0712,2.0833,2.0975,2.1109,0.0,2.0766,0.0,0.0,0.0,0.0,0.0,0.0,0.0,0.0,0.0,0.0,2.3134,2.3514,2.3741,2.3901,2.4111,2.2876,2.1556,0.0,1.9792,1.892,1.8498,0.0,0.0,0.0,0.0,1.5628,1.5209,1.4231,1.3454,1.3086,1.2466,1.1993,1.1719,1.1606,1.1402,1.1118,1.0907,1.0691,1.0439,1.0202,0.9903,0.0,0.0,0.0,0.0,0.0,0.0,0.0,0.0,0.0,0.0,0.0,0.0,0.0,0.0,0.0,0.0,0.0,0.0,0.0,0.0,0.0,0.0,0.0,0.0,0.0,0.0,0.0,0.0,1.9973,2.0548,2.1349,2.1256,2.1122,0.0,0.0,0.0,0.0,0.0,0.0,2.2905,2.3193,2.3527,2.3981,2.4422,2.469,2.4756,2.5013,2.5304,2.5531,2.5598,2.5718,2.5852,2.5736,2.5618,2.5539,2.5307,2.5073,2.4784,2.3519,2.2819,2.2512,2.2184,2.1805,2.1534,2.17,2.1793,2.1852,2.2063,2.2249,2.2364,2.2071,2.1738,2.139,2.1096,0.0,0.0,0.0,0.0,2.2171,2.2726,2.3434,2.4088,2.4449,2.4703,2.4879,2.5031,2.4221,2.3065,0.0,2.0407,1.9323,1.8552,0.0,0.0,0.0,0.0,1.5239,1.4736,1.3868,1.3246,1.298,1.2571,1.2182,1.1911,1.1755,1.1592,1.1402,1.1145,1.0901,1.0752,1.0493,1.0209,0.9944,0.0,0.0,0.0,0.0,0.0,0.0,0.0,0.0,0.0,0.0,0.0,0.0,0.0,0.0,0.0,0.0,0.0,0.0,0.0,0.0,0.0,0.0,0.0,0.0,0.0,0.0,0.0,0.0,0.0,2.2285,2.2305,0.0,0.0,0.0,0.0,2.2786,2.3046,2.3559,2.4439,2.4506,2.4943,2.5837,2.5891,2.6038,2.6279,2.6573,2.668,2.6734,2.7014,2.7014,2.672,2.6332,2.5974,2.5661,2.4748,2.435,2.4358,2.446,2.4319,2.4035,2.3425,2.2989,2.2588,2.2349,2.2353,2.2474,2.2487,2.2916,2.3458,2.3135,2.2714,2.2265,2.2004,2.2098,0.0,0.0,2.2732,2.3332,2.3968,2.4319,2.4693,2.5317,2.5451,2.5363,2.4981,2.4201,2.3474,0.0,2.1566,1.9962,1.9109,0.0,1.6815,1.5911,1.5293,1.4724,1.4132,1.351,1.3112,1.3105,1.264,1.2223,1.2098,1.1911,1.1694,1.1409,1.1274,1.109,1.0907,1.0643,1.0412,1.0295,0.9958,0.0,0.0,0.0,0.0,0.0,0.0,0.0,0.0,0.0,0.0,0.0,0.0,0.0,0.0,0.0,0.0,0.0,0.0,0.0,0.0,0.0,0.0,0.0,0.0,0.0,0.0,0.0,0.0,2.3692,2.3639,0.0,2.3799,2.3812,2.4048,2.4529,2.485,2.5317,2.5973,2.6,2.6279,2.6827,2.6841,2.6881,2.6988,2.7054,2.6986,2.6674,2.6779,2.6479,2.575,2.564,2.5169,2.4445,2.4131,2.3844,2.3616,2.3684,2.3556,2.3304,2.293,2.2595,2.2312,2.2117,2.2091,2.2123,2.2291,2.2524,2.275,2.2706,2.2496,2.2231,2.2395,2.2527,2.2724,2.3262,2.3513,2.3717,2.4221,2.4514,2.4842,2.5544,2.5596,2.5501,2.5521,2.4622,2.3496,2.2555,2.0979,1.9359,1.7948,1.7002,1.6068,1.508,1.4425,1.3923,1.3595,1.3071,1.2695,1.2695,1.2531,1.2366,1.2223,1.2067,1.185,1.1558,1.1336,1.1097,1.0921,1.0718,1.0568,1.0419,1.031,1.0385,0.0,0.0,0.0,0.0,0.0,0.0,0.0,0.0,0.0,0.0,0.0,0.0,0.0,0.0,0.0,0.0,0.0,0.0,0.0,0.0,0.0,0.0,0.0,0.0,0.0,2.3113,2.3977,2.4786,2.4943,2.501,2.5173,2.528,2.5493,2.5919,2.6265,2.6653,2.7094,2.7121,2.7255,2.759,2.7603,2.7603,2.7603,2.7603,2.7355,2.6913,2.6747,2.6195,2.5266,2.4932,2.4305,2.3412,2.295,2.2475,2.2054,2.1631,2.1407,2.1384,2.225,2.2272,2.1782,2.1554,2.1317,2.1146,2.1625,2.1799,2.1832,2.212,2.2112,2.202,2.2274,2.2462,2.2701,2.3267,2.3467,2.3592,2.396,2.421,2.4506,2.5101,2.5231,2.5115,2.5001,2.4045,2.2788,2.1285,2.0079,1.8779,1.7171,1.6215,1.5331,1.4326,1.385,1.3493,1.3158,1.28,1.2576,1.2576,1.2535,1.2461,1.2372,1.2213,1.1968,1.1604,1.137,1.1152,1.1023,1.0846,1.0772,1.075,1.0769,1.0878,1.1063,0.0,0.0,0.0,0.0,0.0,0.0,0.0,0.0,0.0,0.0,0.0,0.0,0.0,0.0,0.0,0.0,0.0,0.0,0.0,0.0,0.0,0.0,0.0,2.3434,2.4396,2.5237,2.5531,2.6066,2.6413,2.6413,2.668,2.6854,2.6854,2.7121,2.7456,2.7696,2.7667,2.7843,2.8136,2.8136,2.8136,2.8094,2.8094,2.7854,2.7402,2.6923,2.6231,2.5239,2.4352,2.3397,2.2481,2.1152,2.0274,1.9724,1.8545,1.8087,1.8352,2.1367,2.1959,2.1041,2.0727,2.0083,1.9554,2.0403,2.0682,2.0798,2.1385,2.158,2.158,2.158,2.1891,2.2202,2.2241,2.2602,2.2973,2.3276,2.346,2.3684,2.4028,2.4279,2.417,2.3351,2.2435,2.1306,1.9498,1.895,1.833,1.6905,1.5731,1.4665,1.3752,1.3596,0.0,1.2799,1.2699,1.2699,1.2699,1.2603,1.2515,1.2508,1.2244,1.1982,1.1647,1.1341,1.1206,1.1206,1.1036,1.0995,1.1213,1.135,1.1372,1.1224,0.0,0.0,0.0,0.0,0.0,0.0,0.0,0.0,0.0,0.0,0.0,0.0,0.0,0.0,0.0,0.0,0.0,0.0,0.0,0.0,0.0,2.4619,2.5288,2.4957,2.5558,2.6213,2.672,2.6961,2.7068,2.7068,2.7295,2.7455,2.7455,2.7777,2.7852,2.7567,2.7567,2.7311,2.6685,2.6698,2.6516,2.6176,2.6176,2.575,2.4952,2.4823,2.3955,2.2438,2.2147,2.1185,1.9622,1.923,1.8628,1.7841,1.7484,1.738,1.7478,1.8657,1.8969,1.8662,1.8231,1.7963,1.7778,1.7926,1.8211,1.8462,1.85,1.8506,1.8627,1.9282,1.9524,1.9916,2.1324,2.1378,2.1148,2.2009,2.1789,2.1617,2.2607,2.2327,2.1959,2.2257,2.109,1.9583,1.8425,1.7299,1.6348,1.5709,1.4971,1.4269,1.3694,1.3418,0.0,1.3098,1.2963,1.2935,1.2935,1.2861,1.2786,1.2678,1.2488,1.221,1.1759,1.1599,1.1443,1.1335,1.1287,1.1389,1.164,1.1965,1.2158,0.0,0.0,0.0,0.0,0.0,0.0,0.0,0.0,0.0,0.0,0.0,0.0,0.0,0.0,0.0,0.0,0.0,0.0,0.0,0.0,0.0,0.0,2.4727,2.5364,2.5401,2.6318,2.7068,2.7443,2.7669,2.7787,2.7566,2.7788,2.779,2.7408,2.7564,2.744,2.6924,2.6752,2.6352,2.5834,2.5618,2.5389,2.513,2.513,2.461,2.3653,2.349,2.2518,2.0896,2.072,1.9706,1.8114,1.7861,1.7218,1.6289,1.6043,1.5925,0.0,0.0,0.0,0.0,0.0,1.6313,1.6297,1.6404,1.6616,1.6852,1.696,1.695,1.6965,1.746,1.7749,1.8138,1.924,1.9378,1.9359,1.9945,1.98,1.9684,2.0354,2.0205,1.9957,2.0202,1.923,1.8051,1.7104,1.6093,0.0,1.4887,1.4507,1.4068,1.3648,1.3478,1.3315,1.3227,1.3139,1.3091,1.3091,1.3037,1.2989,1.2915,1.2718,0.0,0.0,0.0,1.1762,1.171,1.1789,0.0,0.0,0.0,0.0,0.0,0.0,0.0,0.0,1.2428,1.247,0.0,0.0,0.0,0.0,0.0,0.0,0.0,0.0,0.0,0.0,0.0,0.0,0.0,0.0,0.0,0.0,2.4041,2.4598,2.5134,2.6445,2.7383,2.7508,2.7984,2.8128,2.7728,2.7874,2.7635,2.6839,2.6707,2.6455,2.5849,2.5427,0.0,0.0,0.0,2.4163,2.4075,2.4075,2.3576,2.2642,2.2196,2.1313,1.9977,1.9572,1.8626,1.7315,1.6804,1.6025,1.5113,1.4565,1.4312,1.4476,1.6145,1.6403,1.5813,1.5281,1.5101,1.5144,1.5499,0.0,0.0,1.6065,1.6124,1.6039,1.6081,1.6366,1.6659,1.6768,1.718,1.7562,1.763,1.7725,1.7854,1.7897,1.807,1.806,1.7709,1.7227,1.6613,1.5793,1.5264,1.4778,1.4387,1.4177,1.398,1.3722,1.3605,1.3532,1.3302,1.3248,1.3241,1.3241,0.0,0.0,1.3227,1.2969,1.2705,1.2406,1.2302,1.2227,1.2227,1.2454,1.261,1.263,1.272,1.2908,1.3105,1.3248,1.3349,1.3492,1.3506,1.3429,0.0,0.0,0.0,0.0,0.0,0.0,0.0,0.0,0.0,0.0,0.0,0.0,0.0,0.0,0.0,2.3386,2.3787,2.4181,2.4753,2.5083,2.5572,2.6325,2.6511,2.6528,2.644,2.6138,2.5937,2.594,2.5595,2.5048,2.4288,2.3978,2.3149,2.1559,2.1357,2.0865,2.0048,2.0004,1.9734,1.9158,0.0,0.0,1.7558,1.7414,1.6787,1.5833,1.5713,1.5335,1.4776,1.4536,1.4407,1.4343,1.4697,1.4764,1.4648,1.4532,1.4474,1.446,1.446,1.4418,1.444,1.435,1.4287,1.4351,1.4735,1.4905,0.0,1.6012,1.6066,1.5991,1.6522,1.6411,1.6267,1.6653,1.6466,1.6313,1.6621,1.6005,1.5344,1.5168,1.4778,1.4431,1.4299,1.4177,1.4098,1.3994,1.3783,1.3565,1.3546,1.3431,1.3356,1.3356,1.3444,1.3458,1.3363,1.3417,1.3329,1.3024,1.3016,1.2996,1.2996,1.3132,1.3281,1.341,1.3396,1.3484,1.3668,1.3824,1.3973,1.4116,1.3737,1.3554,0.0,0.0,0.0,0.0,0.0,0.0,0.0,0.0,0.0,0.0,0.0,2.1567,2.1755,0.0,2.1463,2.173,2.1531,2.156,2.2011,2.2116,2.2938,2.5127,2.5518,2.5424,2.5059,2.4913,2.4536,2.3729,2.3416,2.2911,2.1985,2.1609,2.1002,2.0022,1.9654,1.9276,1.8765,1.8765,1.8486,1.8028,1.7986,1.7575,1.6887,1.6803,1.635,1.5657,1.5572,1.5268,1.4835,1.4604,1.4468,1.4401,1.4326,1.4299,1.4299,1.4299,1.4299,1.4292,1.4211,1.4183,1.4177,1.4095,1.4021,1.3996,1.4219,1.4305,1.4405,1.4959,1.4995,1.4943,1.5242,1.5175,1.5043,1.5308,1.5175,1.5043,1.5308,1.4999,1.4646,1.4646,1.4476,1.4299,1.4299,1.4238,1.4156,1.4125,1.3946,1.3824,1.37,1.3626,1.362,1.362,1.3646,1.366,1.3627,1.3585,1.3524,1.341,1.3403,1.3403,1.3403,1.3546,1.3612,1.3693,1.381,1.3885,1.3953,1.4183,1.4333,1.4401,1.4207,1.414,0.0,0.0,0.0,0.0,0.0,0.0,0.0,1.934,2.0019,2.044,2.096,2.1218,2.09,2.0409,1.9959,1.9659,1.9122,1.8903,1.9282,1.9333,2.0372,2.3181,2.3886,2.3852,2.3215,2.3262,2.2772,2.1379,2.1206,2.0753,1.9907,1.9462,1.9139,1.8898,1.8448,1.8128,1.8031,1.8031,1.7839,1.7462,1.7325,1.7067,1.6638,1.6524,1.6216,1.5786,1.5671,1.5361,1.4996,1.4699,1.4584,1.4543,1.4394,1.434,1.434,1.4312,1.4299,1.4299,1.4299,1.4299,1.4299,1.4299,1.4217,1.4159,1.4159,1.4159,1.4159,1.4159,1.4204,1.4299,1.4299,1.4299,1.4299,1.4299,1.4299,1.4299,1.4299,1.4299,1.4299,1.4299,1.4299,1.4299,1.4299,1.4299,1.4258,1.418,1.4132,1.4027,1.3899,1.3815,1.3795,1.3795,1.3822,1.3856,1.3883,1.3781,1.3763,1.3763,1.3763,1.3763,1.3763,1.3849,1.393,1.393,1.4122,1.4204,1.4204,1.4441,1.457,1.4604,1.4726,1.4721,1.8518,1.8394,1.8384,1.8646,1.8302,1.8042,0.0,1.9046,1.9339,2.0177,2.0405,2.025,1.9621,1.9293,1.8957,1.8391,1.8234,1.8326,1.8638,1.8687,1.8862,1.9249,2.0105,2.0598,2.053,2.0175,2.0006,2.0075,1.9707,1.9363,1.9025,1.8708,1.8099,1.721,1.6836,1.6401,1.5925,1.5925,1.5925,1.5877,1.5863,1.5808,1.5753,1.5595,1.5527,1.5472,1.5315,1.5179,1.5017,1.4983,1.4835,1.4654,1.455,1.4489,1.4475,1.4346,1.4299,1.4299,1.4299,1.4299,1.4299,1.4299,1.4285,1.4272,1.4272,1.4272,1.4272,1.4272,1.4285,1.4299,1.4299,1.4299,1.4299,1.4299,1.4299,1.4299,1.4299,1.4299,1.4299,1.4299,1.4299,1.4299,1.4299,1.4299,1.4292,1.4278,1.4156,1.4105,1.4048,1.3926,1.3795,1.3795,1.3966,1.4102,1.4238,1.4238,1.4224,1.4224,1.4224,1.4224,1.4224,1.436,1.4434,1.4434,1.4539,1.462,1.462,1.4654,1.4787,1.4923,1.4936,1.4869,1.7164,1.6977,1.6933,1.6983,1.6826,1.6839,1.7387,1.7649,1.7964,1.84,1.8725,1.8709,1.8109,1.7908,1.7592,1.7083,1.681,1.6711,1.6986,1.6942,1.692,1.7008,1.7404,1.7979,1.8858,1.8858,1.8676,1.8275,1.8139,1.7906,1.753,1.7365,1.7091,1.6687,1.6479,1.6227,1.6029,1.594,1.5893,1.5893,1.5805,1.5764,1.5757,1.5615,1.5445,1.5404,1.5248,1.5147,1.5086,1.5051,1.4936,1.4862,1.466,1.459,1.4496,1.4353,1.4299,1.4299,1.4299,1.4299,1.4299,1.4299,1.4299,1.4299,1.4299,1.4299,1.4299,1.4299,1.4299,1.4299,1.4299,1.4299,1.4299,1.4299,1.4367,1.4421,1.4421,1.4421,1.4421,1.4421,1.4353,1.4299,1.4299,1.4299,1.4299,1.4299,1.4245,1.4204,1.4204,1.415,1.4109,1.4109,1.4163,1.4231,1.4292,1.4299,1.4333,1.4421,1.4421,1.4462,1.455,1.4566,1.4599,1.4599,1.466,1.4741,1.4875,1.4957,1.5031,1.5146,1.5187,1.5147,1.5954,1.5699,1.5606,1.5584,1.569,1.5837,1.6136,1.6514,1.6873,1.6947,1.7298,1.7419,1.6872,1.6696,1.651,1.6121,1.5801,1.5703,1.5942,1.5791,1.5737,1.5888,1.5867,1.6251,1.737,1.7704,1.7549,1.6954,1.7065,1.6964,1.6646,1.6605,1.6585,1.6585,1.6442,1.6368,1.6368,1.6218,1.6144,1.6144,1.6037,1.5969,1.5962,1.5764,1.5615,1.5466,1.5309,1.5248,1.5235,1.5086,1.5078,1.5064,1.4862,1.4733,1.4618,1.4475,1.4373,1.4299,1.4299,1.4299,1.4299,1.4299,1.4299,1.4299,1.4299,1.4299,1.4299,1.4299,1.4326,1.436,1.436,1.4387,1.4421,1.4421,1.4496,1.4577,1.4577,1.4577,1.4577,1.4577,1.4455,1.436,1.436,1.436,1.436,1.436,1.436,1.4346,1.4306,1.4299,1.4299,1.4299,1.4299,1.4299,1.4299,1.4333,1.4401,1.4502,1.455,1.4579,1.4687,1.4735,1.4755,1.4755,1.4836,1.4977,1.5092,1.5235,1.5309,1.5309,1.5418,1.5391,1.5232,1.4988,1.4664,1.5184,1.5359,1.5473,1.5652,1.607,1.642,1.6427,1.6601,1.658,1.6025,1.5938,1.5856,1.5629,1.5587,1.5744,1.6035,1.599,1.5894,1.5901,1.573,1.5703,1.5937,1.6223,1.6411,1.6503,1.6653,1.6809,1.6958,1.6822,1.6689,1.6689,1.654,1.6517,1.6517,1.6374,1.63,1.63,1.6151,1.6076,1.6069,1.5962,1.5771,1.5573,1.5472,1.5404,1.5391,1.5242,1.5174,1.516,1.5018,1.501,1.4936,1.478,1.4498,1.4299,1.4299,1.4299,1.4299,1.4299,1.4299,1.4299,1.4299,1.4299,1.4299,1.4299,1.4401,1.4502,1.4502,1.4572,1.4681,1.4681,1.4681,1.4687,1.4687,1.4687,1.4687,1.4687,1.4611,1.4502,1.4502,1.4502,1.4502,1.4502,1.4502,1.4455,1.4319,1.4299,1.4299,1.4299,1.4299,1.4299,1.4299,1.4428,1.4509,1.4509,1.4606,1.4687,1.4694,1.4882,1.501,1.501,1.5248,1.5391,1.5398,1.5506,1.558,1.558,1.558,1.5499,1.3953,1.3976,1.4047,1.4422,1.4598,1.4755,1.5164,1.5367,1.5479,1.5479,1.5515,1.5475,1.514,1.5284,1.5437,1.5452,1.5655,1.5852,1.6056,1.5996,1.5901,1.5901,1.586,1.5847,1.5894,1.6035,1.6259,1.6503,1.6615,1.6763,1.6971,1.6931,1.6904,1.6904,1.6754,1.6621,1.6621,1.6524,1.6402,1.6307,1.6157,1.6083,1.6076,1.5976,1.5874,1.5771,1.5628,1.5506,1.5404,1.5357,1.5276,1.5174,1.5126,1.5098,1.501,1.4909,1.4767,1.4532,1.4475,1.4441,1.4428,1.4333,1.4299,1.4299,1.4299,1.4367,1.4441,1.4441,1.455,1.462,1.462,1.4654,1.4694,1.4694,1.4821,1.4896,1.4896,1.4896,1.4896,1.4896,1.4767,1.462,1.462,1.462,1.462,1.462,1.4577,1.4462,1.4319,1.4299,1.4299,1.4299,1.4299,1.434,1.4434,1.4482,1.4597,1.4801,1.4862,1.4936,1.5031,1.5086,1.516,1.5262,1.5357,1.5506,1.5751,1.5806,1.5784,1.5784,1.5784,1.5703,1.3296,1.3595,1.3895,1.4128,1.4346,1.4604,1.4835,1.493,1.4983,1.4828,1.4808,1.476,1.4611,1.478,1.5025,1.5289,1.5581,1.5866,1.613,1.6076,1.6015,1.6015,1.5969,1.5922,1.5976,1.6024,1.6144,1.6497,1.6615,1.6763,1.6971,1.6978,1.6978,1.6978,1.6883,1.6829,1.6829,1.6628,1.6503,1.6307,1.6212,1.6137,1.6076,1.603,1.5983,1.5976,1.5778,1.5662,1.5567,1.5513,1.5404,1.5262,1.5262,1.5174,1.5091,1.5091,1.4984,1.4869,1.462,1.459,1.4577,1.4489,1.4455,1.4455,1.4455,1.4523,1.459,1.459,1.4706,1.4821,1.4821,1.4862,1.4896,1.4896,1.4977,1.5091,1.5091,1.5091,1.5091,1.5091,1.4923,1.4821,1.4821,1.4821,1.4821,1.4821,1.474,1.4624,1.4475,1.4407,1.4394,1.4448,1.4407,1.4434,1.4577,1.4645,1.476,1.5003,1.5018,1.5086,1.5181,1.5235,1.5309,1.5411,1.5513,1.5662,1.5901,1.5956,1.5983,1.5983,1.5983,1.5859,1.3308,1.3749,1.4166,1.4292,1.4652,1.4923,1.4728,1.4848,1.4855,1.4543,1.4475,1.4434,1.4292,1.4387,1.4638,1.5086,1.5425,1.5735,1.6239,1.6307,1.6313,1.632,1.6112,1.5996,1.609,1.6024,1.6069,1.6503,1.6608,1.6757,1.6971,1.6978,1.6978,1.6978,1.6978,1.6978,1.6978,1.6777,1.6554,1.632,1.6313,1.6232,1.6083,1.6083,1.6083,1.6076,1.5976,1.5908,1.5894,1.571,1.5512,1.5418,1.5411,1.5323,1.5201,1.5187,1.5187,1.5153,1.4816,1.4714,1.4708,1.4694,1.4694,1.4694,1.4694,1.4701,1.4708,1.4708,1.4862,1.503,1.503,1.5079,1.5181,1.5181,1.5181,1.5181,1.5181,1.5181,1.5181,1.5181,1.5119,1.503,1.503,1.503,1.503,1.503,1.503,1.4923,1.4714,1.4566,1.4577,1.4681,1.4611,1.4584,1.4694,1.4889,1.5023,1.5037,1.512,1.5201,1.5208,1.5343,1.5425,1.5432,1.5758,1.5908,1.5915,1.6058,1.6083,1.6083,1.6083,1.6051,1.3792,1.4068,1.4333,1.4751,1.4801,1.4741,1.4701,1.4679,1.4509,1.4052,1.3971,1.3923,1.3781,1.4014,1.4333,1.478,1.5201,1.5628,1.6076,1.6239,1.6347,1.6456,1.6395,1.6368,1.6402,1.6374,1.6442,1.6621,1.6567,1.67,1.6965,1.6978,1.6978,1.6978,1.6978,1.6978,1.6978,1.6777,1.6601,1.6469,1.6361,1.6232,1.6083,1.6083,1.6083,1.6083,1.6042,1.601,1.5901,1.586,1.571,1.5519,1.5452,1.5459,1.5445,1.5269,1.5255,1.5323,1.5133,1.4997,1.4896,1.4735,1.4694,1.4694,1.4694,1.4821,1.4909,1.4909,1.5018,1.5126,1.5126,1.5153,1.5181,1.5181,1.5181,1.5181,1.5181,1.5181,1.5181,1.5181,1.5153,1.5126,1.5126,1.5126,1.5126,1.5126,1.5126,1.5031,1.4728,1.466,1.4654,1.4687,1.466,1.4701,1.4896,1.495,1.5112,1.5282,1.5337,1.5404,1.5472,1.5512,1.5628,1.5786,1.586,1.5956,1.6071,1.6062,1.6083,1.6083,1.6083,1.6062,1.4061,1.438,1.4638,1.4821,1.4755,1.464,1.4489,1.4326,1.4089,1.3641,1.3546,1.3505,1.3363,1.358,1.3946,1.4417,1.4977,1.5513,1.6096,1.6368,1.6558,1.6707,1.6659,1.6567,1.6567,1.6506,1.6585,1.6682,1.6621,1.6727,1.6971,1.6978,1.6978,1.6978,1.6978,1.6978,1.6978,1.6897,1.6775,1.6567,1.6476,1.6327,1.6178,1.611,1.6083,1.6083,0.0,1.6085,1.6003,1.6003,1.5866,1.5723,1.5642,1.5622,1.556,1.5371,1.5337,1.5391,1.5235,1.5126,1.5052,1.4964,1.4936,1.4936,1.4936,1.4997,1.5112,1.5112,1.512,1.5181,1.5181,1.5181,1.5181,1.5181,1.5181,1.5181,1.5181,1.5235,1.5303,1.5371,1.533,1.5282,1.5282,1.5282,1.5282,1.5282,1.5343,1.5296,1.5019,1.4923,1.4869,1.493,1.4875,1.4903,1.5052,1.5126,1.5235,1.5398,1.5472,1.5499,1.5587,1.5696,1.5771,1.5901,1.5969,1.5995,1.6083,1.6083,1.6083,1.6083,1.6083,1.6083,1.434,1.4672,1.4936,1.4755,1.4694,1.459,1.4143,1.3892,1.3585,1.3173,1.3111,1.3064,1.2962,1.3139,1.3539,1.4143,1.474,1.5384,1.6117,1.6439,1.6702,1.6931,1.6849,1.673,1.673,1.6608,1.6588,1.6716,1.673,1.6836,1.6971,1.6978,1.6978,1.6978,1.6978,1.6978,1.6978,1.6978,1.6904,1.6696,1.654,1.6449,1.6307,1.6151,1.6083,1.6083,1.6083,1.6083,1.6083,1.6083,1.6051,1.5928,1.5908,1.5791,1.5627,1.5506,1.5438,1.5418,1.5222,1.5107,1.5087,1.5181,1.5181,1.5181,1.5181,1.5181,1.5181,1.5181,1.5134,1.5087,1.5087,1.4993,1.4899,1.4899,1.4852,1.4805,1.4805,1.4924,1.5022,1.5173,1.5094,1.5008,1.5008,1.5008,1.5008,1.5008,1.5121,1.5147,1.4995,1.5046,1.5065,1.5174,1.5119,1.5059,1.5201,1.5337,1.5425,1.5466,1.5594,1.5627,1.5648,1.5818,1.5935,1.5935,1.6064,1.6083,1.6083,1.6083,1.6083,1.6083,1.6083,1.6083,1.4792,1.4955,1.501,1.4936,1.474,1.439,1.3944,1.3573,1.3159,1.2712,1.2522,1.2474,1.2562,1.2834,1.3227,1.3781,1.4376,1.4992,1.5621,1.6117,1.6432,1.6702,1.6876,1.6937,1.6937,1.6917,1.691,1.6937,1.6937,1.6951,1.6978,1.6978,1.6978,1.6978,1.6978,1.6978,1.6978,1.6978,1.6904,1.6696,1.654,1.6449,1.6307,1.6151,1.6083,1.6083,1.6083,0.0,1.6083,1.6083,1.6069,1.6029,1.5949,1.5962,1.5974,1.5696,1.5553,1.5484,1.4995,1.4667,1.461,1.504,1.5181,1.5181,1.5181,1.5181,1.5181,1.5181,1.4899,1.4516,1.4516,1.3911,1.3305,1.3305,1.3022,1.2733,1.2733,1.2782,1.2853,1.2935,1.294,1.2923,1.2923,1.2923,1.2923,1.2923,1.2946,1.2912,1.2836,1.4311,1.5296,1.5194,1.516,1.5208,1.5357,1.5398,1.5513,1.5813,1.5854,1.5922,1.6001,1.6029,1.6092,1.6092,1.6069,1.6083,1.6083,1.6083,1.6083,1.6083,1.6083,1.6083,1.4794,1.4909,1.495,1.4869,1.4502,1.4004,1.3593,1.3146,1.2718,1.239,1.2284,1.2311,1.2379,1.2637,1.301,1.3526,1.4116,1.4746,1.5377,1.5974,1.6422,1.6662,1.689,1.6978,1.6978,1.6978,1.6978,1.6978,1.6978,1.6978,1.6978,1.6978,1.6978,1.6978,1.6978,1.6978,1.6978,1.6978,1.6944,1.687,1.6632,1.6483,1.6415,1.6185,1.6083,1.6083,1.6083,1.6083,1.6083,1.6083,1.6083,1.6076,1.5704,1.5618,1.5602,1.4802,1.4531,1.4402,1.3704,1.3209,1.2955,1.3169,1.3575,1.3958,1.3723,1.3629,1.3629,1.3629,1.344,1.3205,1.2916,1.2492,1.2036,1.1815,1.1593,1.1433,1.1544,1.1612,1.1658,1.1781,1.1717,1.1677,1.1677,1.1677,1.1677,1.1677,1.1776,1.18,1.1628,1.2476,1.3273,1.3606,1.3926,1.4137,1.4206,1.4832,1.5321,1.546,1.5828,1.6051,1.6076,1.6083,1.6083,1.6083,1.6083,1.6083,1.6083,1.6083,1.6083,1.6083,1.6164,1.6198,1.4674,1.4828,1.4875,1.4692,1.4194,1.3673,1.3275,1.2779,1.2372,1.2074,1.2088,1.2169,1.223,1.2461,1.2793,1.3275,1.3831,1.4448,1.5167,1.5784,1.6286,1.6567,1.6822,1.6944,1.6978,1.6978,1.6978,1.6978,1.6978,1.6978,1.6978,1.6978,1.6978,1.6978,1.6978,1.6978,1.6978,1.6978,1.6978,1.6978,1.67,1.6551,1.651,1.6252,1.606,1.5934,1.5934,1.5784,1.5578,1.5578,1.5529,1.5379,1.4925,1.4725,1.4514,1.3568,1.3122,1.282,1.1966,1.1397,1.0926,1.0441,1.1259,1.2356,1.1978,1.1836,1.1836,1.1836,1.1694,1.1453,1.1023,1.0592,1.0099,0.9528,0.9373,0.9431,0.9592,0.9665,0.9714,0.9882,0.9803,0.9654,0.9654,0.9654,0.9654,0.9654,0.9815,0.9853,0.9685,0.9647,0.9867,1.0511,1.1756,1.2639,1.2811,1.3799,1.4496,1.4626,1.5123,1.5479,1.5578,1.5578,1.5678,1.5934,1.5934,1.5983,1.6083,1.6083,1.6096,1.613,1.6252,1.6327,1.462,1.4708,1.4647,1.4414,1.4089,1.3646,1.3152,1.2669,1.2223,1.1918,1.1726,1.1762,1.207,1.2254,1.2522,1.3098,1.358,1.4052,1.4667,1.5276,1.581,1.63,1.6547,1.6777,1.6965,1.6978,1.6978,1.6978,1.6978,1.6978,1.6978,1.6978,1.6978,1.6978,1.6978,1.6978,1.6978,1.6978,1.6978,1.6978,1.6757,1.6608,1.6517,1.6361,1.5961,1.5379,1.5379,1.4825,0.0,1.3928,1.3622,1.3173,1.3123,1.2824,1.2374,1.2263,1.1793,1.1097,1.0055,0.9572,0.91,0.7205,0.851,1.0786,1.0739,1.0739,1.0739,1.0739,1.0072,0.9358,0.9311,0.7938,0.6345,0.5397,0.5155,0.5203,0.5257,0.5266,0.5327,0.5379,0.5386,0.5384,0.5384,0.5384,0.5384,0.5384,0.5386,0.537,0.527,0.5272,0.5271,0.5312,0.868,1.1182,1.1868,1.2079,1.2441,1.3051,1.3168,1.3423,1.3928,1.3928,1.4377,1.533,1.5379,1.5628,1.6083,1.6083,1.6151,1.6286,1.63,1.6381,1.4421,1.4536,1.4512,1.4353,1.3933,1.3444,1.2935,1.2474,1.2067,1.1769,1.1803,1.1925,1.2077,1.2295,1.2556,1.3016,1.3342,1.3783,1.4387,1.4991,1.5533,1.5981,1.6374,1.6621,1.6777,1.6924,1.6978,1.6978,1.6978,1.6978,1.6978,1.6978,1.6978,1.6978,1.6978,1.6978,1.6978,1.6978,1.6978,1.6978,1.6727,1.6527,1.6466,1.5927,1.5381,1.4775,1.4127,1.3423,0.0,1.2374,1.2124,1.1874,1.1223,1.0822,1.0471,0.9159,0.8485,0.8143,0.6991,0.6302,0.5876,0.4976,0.533,0.6182,0.6799,0.6989,0.6989,0.6989,0.6704,0.6325,0.5995,0.5115,0.4184,0.3814,0.37,0.3738,0.3773,0.3781,0.3741,0.3827,0.3833,0.3833,0.3833,0.3833,0.3833,0.3833,0.3833,0.382,0.3735,0.3749,0.3713,0.3676,0.631,0.8192,0.8468,0.9777,1.0677,1.0968,1.1573,1.2024,1.2274,1.2574,1.2956,1.3435,1.4096,1.4591,1.4828,1.5538,1.5874,1.5933,1.6326,1.6554,1.4034,1.4177,1.4217,1.4068,1.3682,1.3207,1.2712,1.2318,1.2016,1.1681,1.1816,1.2043,1.2091,1.2309,1.2556,1.2941,1.3248,1.3593,1.4156,1.4746,1.5289,1.5737,1.6185,1.6537,1.6675,1.689,1.6978,1.6978,1.6978,1.6978,1.6978,1.6978,1.6978,1.6978,1.6978,1.6978,1.6978,1.6978,1.6926,1.6709,1.6455,1.6154,1.5744,1.5152,1.4413,1.3523,1.2574,1.1623,0.0,1.0066,0.9661,0.931,0.8561,0.8159,0.7807,0.6246,0.5633,0.5359,0.4388,0.3769,0.3408,0.3018,0.2669,0.2524,0.3096,0.3667,0.4143,0.4143,0.4048,0.3762,0.3097,0.2688,0.2369,0.2224,0.2192,0.2212,0.2227,0.2236,0.2192,0.2251,0.2258,0.226,0.2254,0.2253,0.2255,0.2261,0.2262,0.2259,0.22,0.218,0.216,0.2188,0.3663,0.4902,0.5536,0.706,0.8085,0.8256,0.8959,0.951,0.9815,1.0212,1.0763,1.1476,1.2293,1.296,1.3495,1.4322,1.491,1.5262,1.5718,1.6145,1.3512,1.3599,1.3558,1.3451,1.3295,1.3024,1.2427,1.2213,1.2016,1.1681,1.1698,1.184,1.207,1.2227,1.2479,1.2928,1.3248,1.3559,1.405,1.4636,1.514,1.5539,1.6035,1.6429,1.6669,1.689,1.6978,1.6978,1.6978,1.6978,1.6978,1.6978,1.6978,1.6978,1.6978,1.6978,1.6978,1.6978,1.6715,1.6131,1.6035,1.5324,1.411,1.3977,1.2988,1.1323,1.0772,0.9318,0.0,0.6701,0.5843,0.4887,0.4837,0.4537,0.4035,0.4035,0.371,0.318,0.261,0.2439,0.2222,0.1196,0.0811,0.0715,0.0191,0.1478,0.3096,0.3096,0.2716,0.2098,0.1097,0.0816,0.0677,0.0145,0.0049,0.0049,0.0049,0.0049,0.005,0.0049,0.0049,0.005,0.0049,0.0049,0.0049,0.005,0.005,0.005,0.005,0.005,0.005,0.0049,0.054,0.1668,0.3774,0.4006,0.4293,0.4835,0.4837,0.534,0.6397,0.6447,0.7534,0.9795,0.9846,1.0661,1.2312,1.2312,1.2988,1.4203,1.4203,1.49,1.2882,1.3091,1.3132,1.2983,1.2827,1.261,1.2261,1.2013,1.1877,1.1746,1.1884,1.2033,1.2227,1.2338,1.2549,1.2941,1.3159,1.3479,1.4037,1.4502,1.4977,1.5432,1.6056,1.6571,1.6876,1.6951,1.6978,1.6978,1.6978,1.6978,1.6978,1.661,1.6558,1.6978,1.6978,1.6821,1.6394,1.6394,1.592,1.4908,1.4428,1.3739,1.2873,1.1609,1.0553,0.9569,0.7858,0.655,0.0,0.4589,0.4035,0.3682,0.3279,0.3077,0.2825,0.2069,0.1707,0.1492,0.0936,0.078,0.0724,0.0383,0.0239,0.0239,0.0048,0.0477,0.1002,0.1002,0.0859,0.0668,0.0334,0.0239,0.0192,0.0048,0.0,0.0,0.0,0.0,0.0,0.0,0.0,0.0,0.0,0.0,0.0,0.0,0.0,0.0,0.0,0.0,0.0,0.0,0.0146,0.0682,0.1716,0.2474,0.2996,0.3125,0.348,0.3884,0.4186,0.4566,0.5162,0.5982,0.7107,0.7944,0.8542,1.0118,1.1658,1.3169,1.3169,1.3611,1.2239,1.2461,1.2515,1.2375,1.2366,1.2257,1.1965,1.1864,1.178,1.1726,1.1918,1.2132,1.2227,1.2413,1.2671,1.2962,1.322,1.3519,1.4044,1.4509,1.5059,1.5676,1.6209,1.6707,1.6958,1.6768,1.6663,1.6663,1.6236,1.6026,1.6026,1.5493,1.523,1.5388,1.5815,1.5868,1.5441,1.502,1.4276,1.3164,1.2414,1.1428,1.0184,0.9038,0.7958,0.6956,0.5395,0.4287,0.0,0.2675,0.2171,0.1969,0.1615,0.1514,0.1413,0.0757,0.0501,0.0445,0.0098,0.0,0.0,0.0,0.0,0.0,0.0,0.0,0.0,0.0,0.0,0.0,0.0,0.0,0.0,0.0,0.0,0.0,0.0,0.0,0.0,0.0,0.0,0.0,0.0,0.0,0.0,0.0,0.0,0.0,0.0,0.0,0.0,0.0,0.0,0.0146,0.0488,0.1132,0.1491,0.1505,0.1814,0.207,0.2272,0.2639,0.3021,0.3525,0.4586,0.5363,0.5855,0.7924,0.9462,1.0464,1.1368,1.1949,0.0,1.1746,1.1759,1.1759,1.1918,1.1996,1.1681,1.1685,0.0,1.1624,1.1864,1.2104,1.2111,1.2433,1.2779,1.2975,1.3336,1.3743,1.4061,1.4652,1.5269,1.6075,1.6373,1.6601,1.6755,1.6236,1.592,1.5868,1.4862,1.4276,1.4224,1.3697,1.3116,1.253,1.3375,1.396,1.4118,1.3058,1.1949,1.0786,1.0072,0.8589,0.6523,0.6301,0.5343,0.0,0.328,0.2473,0.0,0.0959,0.0455,0.0,0.0,0.0,0.0,0.0,0.0,0.0,0.0,0.0,0.0,0.0,0.0,0.0,0.0,0.0,0.0,0.0,0.0,0.0,0.0,0.0,0.0,0.0,0.0,0.0,0.0,0.0,0.0,0.0,0.0,0.0,0.0,0.0,0.0,0.0,0.0,0.0,0.0,0.0,0.0,0.0,0.0,0.0,0.0,0.0,0.0,0.0,0.0,0.0202,0.0707,0.0758,0.1223,0.228,0.2387,0.2986,0.4208,0.5749,0.6546,0.6653,0.8773,0.978,1.1049,0.0,1.1497,1.1497,1.1613,1.1708,0.0,1.1611,1.1651,1.1732,1.1932,1.2132,1.2216,1.2508,1.2779,1.2975,1.3336,1.381,1.4333,1.4845,1.4985,1.4584,1.4674,1.4667,1.4423,1.4276,1.4013,1.3538,1.3275,1.2905,1.253,1.1527,1.0945,1.0786,0.9356,0.9405,1.1156,1.0945,0.978,0.7818,0.7156,0.6112,0.4765,0.3815,0.3127,0.2725,0.1767,0.0,0.0959,0.0404,0.0101,0.0,0.0,0.0,0.0,0.0,0.0,0.0,0.0,0.0,0.0,0.0,0.0,0.0,0.0,0.0,0.0,0.0,0.0,0.0,0.0,0.0,0.0,0.0,0.0,0.0,0.0,0.0,0.0,0.0,0.0,0.0,0.0,0.0,0.0,0.0,0.0,0.0,0.0,0.0,0.0,0.0,0.0,0.0,0.0,0.0,0.0,0.0,0.0,0.0051,0.0202,0.0203,0.0307,0.0565,0.1041,0.1845,0.2985,0.341,0.4048,0.4898,0.543,0.5909,1.0874,1.1029,1.1206,1.1302,1.1402,1.1511,1.1511,1.1565,1.1604,1.1678,1.1911,1.2145,1.2264,1.2644,1.2983,1.318,1.36,1.3995,1.4139,1.4188,1.3941,1.3319,1.3182,1.3048,1.2847,1.2372,1.1897,1.1579,1.057,0.9882,0.9568,0.8455,0.7765,0.75,0.6309,0.6623,0.8614,0.7871,0.6756,0.5215,0.4653,0.3734,0.2644,0.1986,0.1515,0.1262,0.0707,0.0,0.0404,0.0101,0.0,0.0,0.0,0.0,0.0,0.0,0.0,0.0,0.0,0.0,0.0,0.0,0.0,0.0,0.0,0.0,0.0,0.0,0.0,0.0,0.0,0.0,0.0,0.0,0.0,0.0,0.0,0.0,0.0,0.0,0.0,0.0,0.0,0.0,0.0,0.0,0.0,0.0,0.0,0.0,0.0,0.0,0.0,0.0,0.0,0.0,0.0,0.0,0.0,0.0,0.0,0.0,0.0,0.0,0.0313,0.0791,0.1431,0.1702,0.2131,0.277,0.325,0.3676,1.0901,1.0948,1.0988,1.1227,1.1348,1.1457,1.1457,1.1545,1.1626,1.1647,1.187,1.2152,1.2291,1.2826,1.3227,1.3321,1.374,1.3939,1.3531,1.2974,1.2405,1.1732,1.1354,1.1051,1.0892,0.9992,0.9409,0.9303,0.75,0.6387,0.6278,0.5262,0.4517,0.404,0.3847,0.4473,0.5883,0.4674,0.3719,0.3023,0.2508,0.1711,0.0777,0.0713,0.0455,0.0,0.0,0.0,0.0,0.0,0.0,0.0,0.0,0.0,0.0,0.0,0.0,0.0,0.0,0.0,0.0,0.0,0.0,0.0,0.0,0.0,0.0,0.0,0.0,0.0,0.0,0.0,0.0,0.0,0.0,0.0,0.0,0.0,0.0,0.0,0.0,0.0,0.0,0.0,0.0,0.0,0.0,0.0,0.0,0.0,0.0,0.0,0.0,0.0,0.0,0.0,0.0,0.0,0.0,0.0,0.0,0.0,0.0,0.0,0.0,0.0,0.0,0.0531,0.0746,0.0799,0.1759,0.2185,1.1056,1.1166,1.1234,1.1477,1.1653,1.1726,1.1726,1.1651,1.1617,1.1739,1.1938,1.2179,1.242,1.2854,1.3145,1.3001,1.3024,1.2775,1.2063,1.1442,1.033,0.8386,0.7839,0.7181,0.6225,0.6013,0.5694,0.5217,0.4898,0.4473,0.394,0.3332,0.295,0.2846,0.1934,0.1561,0.1824,0.252,0.231,0.1303,0.1196,0.0776,0.0154,0.0152,0.0101,0.0,0.0,0.0,0.0,0.0,0.0,0.0,0.0,0.0,0.0,0.0,0.0,0.0,0.0,0.0,0.0,0.0,0.0,0.0,0.0,0.0,0.0,0.0,0.0,0.0,0.0,0.0,0.0,0.0,0.0,0.0,0.0,0.0,0.0,0.0,0.0,0.0,0.0,0.0,0.0,0.0,0.0,0.0,0.0,0.0,0.0,0.0,0.0,0.0,0.0,0.0,0.0,0.0,0.0,0.0,0.0,0.0,0.0,0.0,0.0,0.0,0.0,0.0106,0.016,0.016,0.032,0.0373,1.1118,1.1254,1.1417,1.1762,1.1843,1.1813,1.1938,1.1972,1.1999,1.2067,1.2264,1.2515,1.2807,1.3022,1.297,1.2485,1.1733,1.095,1.0086,0.8838,0.7517,0.6216,0.54,0.4765,0.4258,0.394,0.3623,0.341,0.2824,0.2339,0.2063,0.1529,0.1207,0.1201,0.0673,0.0412,0.0412,0.0931,0.0934,0.0415,0.0413,0.0257,0.0,0.0,0.0,0.0,0.0,0.0,0.0,0.0,0.0,0.0,0.0,0.0,0.0,0.0,0.0,0.0,0.0,0.0,0.0,0.0,0.0,0.0,0.0,0.0,0.0,0.0,0.0,0.0,0.0,0.0,0.0,0.0,0.0,0.0,0.0,0.0,0.0,0.0,0.0,0.0,0.0,0.0,0.0,0.0,0.0,0.0,0.0,0.0,0.0,0.0,0.0,0.0,0.0,0.0,0.0,0.0,0.0,0.0,0.0,0.0,0.0,0.0,0.0,0.0,0.0,0.0,0.0,0.0,0.0,0.0,1.1029,1.1254,1.1436,1.1894,1.1925,1.1932,1.2121,1.2257,1.2321,1.228,1.2494,1.2682,1.277,1.2567,1.2219,1.1585,1.0228,0.8921,0.8003,0.6323,0.487,0.4184,0.3335,0.2784,0.2592,0.2229,0.1966,0.1966,0.1169,0.0689,0.0684,0.0262,0.0,0.0,0.0,0.0,0.0,0.0,0.0,0.0,0.0,0.0,0.0,0.0,0.0,0.0,0.0,0.0,0.0,0.0,0.0,0.0,0.0,0.0,0.0,0.0,0.0,0.0,0.0,0.0,0.0,0.0,0.0,0.0,0.0,0.0,0.0,0.0,0.0,0.0,0.0,0.0,0.0,0.0,0.0,0.0,0.0,0.0,0.0,0.0,0.0,0.0,0.0,0.0,0.0,0.0,0.0,0.0,0.0,0.0,0.0,0.0,0.0,0.0,0.0,0.0,0.0,0.0,0.0,0.0,0.0,0.0,0.0,0.0,0.0,0.0,0.0,0.0,0.0,0.0,0.0,0.0,1.0846,1.107,1.1288,1.1572,1.185,1.2159,1.2406,1.2481,1.2414,1.2251,1.2385,1.2326,1.1729,1.092,1.0254,0.998,0.8406,0.6895,0.5926,0.447,0.3069,0.1946,0.1395,0.0884,0.0312,0.021,0.0211,0.0211,0.0105,0.0053,0.0053,0.0,0.0,0.0,0.0,0.0,0.0,0.0,0.0,0.0,0.0,0.0,0.0,0.0,0.0,0.0,0.0,0.0,0.0,0.0,0.0,0.0,0.0,0.0,0.0,0.0,0.0,0.0,0.0,0.0,0.0,0.0,0.0,0.0,0.0,0.0,0.0,0.0,0.0,0.0,0.0,0.0,0.0,0.0,0.0,0.0,0.0,0.0,0.0,0.0,0.0,0.0,0.0,0.0,0.0,0.0,0.0,0.0,0.0,0.0,0.0,0.0,0.0,0.0,0.0,0.0,0.0,0.0,0.0,0.0,0.0,0.0,0.0,0.0,0.0,0.0,0.0,0.0,0.0,0.0,0.0,0.0,1.0975,1.1159,1.1315,1.1775,1.2091,1.2257,1.2454,1.2482,1.2414,1.2125,1.1796,1.1167,0.9884,0.9227,0.8466,0.7251,0.5952,0.4729,0.3743,0.2521,0.1576,0.1177,0.0668,0.0258,0.0,0.0,0.0,0.0,0.0,0.0,0.0,0.0,0.0,0.0,0.0,0.0,0.0,0.0,0.0,0.0,0.0,0.0,0.0,0.0,0.0,0.0,0.0,0.0,0.0,0.0,0.0,0.0,0.0,0.0,0.0,0.0,0.0,0.0,0.0,0.0,0.0,0.0,0.0,0.0,0.0,0.0,0.0,0.0,0.0,0.0,0.0,0.0,0.0,0.0,0.0,0.0,0.0,0.0,0.0,0.0,0.0,0.0,0.0,0.0,0.0,0.0,0.0,0.0,0.0,0.0,0.0,0.0,0.0,0.0,0.0,0.0,0.0,0.0,0.0,0.0,0.0,0.0,0.0,0.0,0.0,0.0,0.0,0.0,0.0,0.0,0.0,0.0,1.0975,1.1165,1.139,1.1864,1.2176,1.2381,1.2461,1.258,1.2471,1.1896,1.0594,0.9189,0.7892,0.7117,0.627,0.4869,0.3809,0.2843,0.2028,0.1099,0.0554,0.0558,0.0204,0.0,0.0,0.0,0.0,0.0,0.0,0.0,0.0,0.0,0.0,0.0,0.0,0.0,0.0,0.0,0.0,0.0,0.0,0.0,0.0,0.0,0.0,0.0,0.0,0.0,0.0,0.0,0.0,0.0,0.0,0.0,0.0,0.0,0.0,0.0,0.0,0.0,0.0,0.0,0.0,0.0,0.0,0.0,0.0,0.0,0.0,0.0,0.0,0.0,0.0,0.0,0.0,0.0,0.0,0.0,0.0,0.0,0.0,0.0,0.0,0.0,0.0,0.0,0.0,0.0,0.0,0.0,0.0,0.0,0.0,0.0,0.0,0.0,0.0,0.0,0.0,0.0,0.0,0.0,0.0,0.0,0.0,0.0,0.0,0.0,0.0,0.0,0.0,0.0,1.0792,1.113,1.1463,1.1726,1.2176,1.2506,1.2505,1.2704,1.26,1.1467,0.8709,0.6323,0.5871,0.4637,0.3526,0.3045,0.2148,0.1311,0.0882,0.0346,0.0,0.0,0.0,0.0,0.0,0.0,0.0,0.0,0.0,0.0,0.0,0.0,0.0,0.0,0.0,0.0,0.0,0.0,0.0,0.0,0.0,0.0,0.0,0.0,0.0,0.0,0.0,0.0,0.0,0.0,0.0,0.0,0.0,0.0,0.0,0.0,0.0,0.0,0.0,0.0,0.0,0.0,0.0,0.0,0.0,0.0,0.0,0.0,0.0,0.0,0.0,0.0,0.0,0.0,0.0,0.0,0.0,0.0,0.0,0.0,0.0,0.0,0.0,0.0,0.0,0.0,0.0,0.0,0.0,0.0,0.0,0.0,0.0,0.0,0.0,0.0,0.0,0.0,0.0,0.0,0.0,0.0,0.0,0.0,0.0,0.0,0.0,0.0,0.0,0.0,0.0,0.0,1.1009,1.1321,1.1647,1.2054,1.2494,1.2822,1.281,1.2341,1.1164,0.8481,0.6346,0.4602,0.3498,0.2924,0.2387,0.1503,0.1194,0.0823,0.0291,0.0098,0.0,0.0,0.0,0.0,0.0,0.0,0.0,0.0,0.0,0.0,0.0,0.0,0.0,0.0,0.0,0.0,0.0,0.0,0.0,0.0,0.0,0.0,0.0,0.0,0.0,0.0,0.0,0.0,0.0,0.0,0.0,0.0,0.0,0.0,0.0,0.0,0.0,0.0,0.0,0.0,0.0,0.0,0.0,0.0,0.0,0.0,0.0,0.0,0.0,0.0,0.0,0.0,0.0,0.0,0.0,0.0,0.0,0.0,0.0,0.0,0.0,0.0,0.0,0.0,0.0,0.0,0.0,0.0,0.0,0.0,0.0,0.0,0.0,0.0,0.0,0.0,0.0,0.0,0.0,0.0,0.0,0.0,0.0,0.0,0.0,0.0,0.0,0.0,0.0,0.0,0.0,0.0,1.1158,1.1518,1.1918,1.2465,1.2728,1.2632,1.1609,1.0864,0.9527,0.6549,0.4602,0.3103,0.1861,0.1451,0.1128,0.0517,0.0476,0.0385,0.0048,0.0,0.0,0.0,0.0,0.0,0.0,0.0,0.0,0.0,0.0,0.0,0.0,0.0,0.0,0.0,0.0,0.0,0.0,0.0,0.0,0.0,0.0,0.0,0.0,0.0,0.0,0.0,0.0,0.0,0.0,0.0,0.0,0.0,0.0,0.0,0.0,0.0,0.0,0.0,0.0,0.0,0.0,0.0,0.0,0.0,0.0,0.0,0.0,0.0,0.0,0.0,0.0,0.0,0.0,0.0,0.0,0.0,0.0,0.0,0.0,0.0,0.0,0.0,0.0,0.0,0.0,0.0,0.0,0.0,0.0,0.0,0.0,0.0,0.0,0.0,0.0,0.0,0.0,0.0,0.0,0.0,0.0,0.0,0.0,0.0,0.0,0.0,0.0,0.0,0.0,0.0,0.0,0.0,1.1274,1.1764,1.2261,1.2853,1.2764,1.1963,0.9589,0.8684,0.7691,0.5386,0.3373,0.181,0.0891,0.0329,0.0,0.0,0.0,0.0,0.0,0.0,0.0,0.0,0.0,0.0,0.0,0.0,0.0,0.0,0.0,0.0,0.0,0.0,0.0,0.0,0.0,0.0,0.0,0.0,0.0,0.0,0.0,0.0,0.0,0.0,0.0,0.0,0.0,0.0,0.0,0.0,0.0,0.0,0.0,0.0,0.0,0.0,0.0,0.0,0.0,0.0,0.0,0.0,0.0,0.0,0.0,0.0,0.0,0.0,0.0,0.0,0.0,0.0,0.0,0.0,0.0,0.0,0.0,0.0,0.0,0.0,0.0,0.0,0.0,0.0,0.0,0.0,0.0,0.0,0.0,0.0,0.0,0.0,0.0,0.0,0.0,0.0,0.0,0.0,0.0,0.0,0.0,0.0,0.0,0.0,0.0,0.0,0.0,0.0,0.0,0.0,0.0,0.0,1.1335,1.1809,1.2397,1.288,1.2278,1.1025,0.9149,0.7204,0.5316,0.3692,0.2163,0.0927,0.0279,0.0094,0.0,0.0,0.0,0.0,0.0,0.0,0.0,0.0,0.0,0.0,0.0,0.0,0.0,0.0,0.0,0.0,0.0,0.0,0.0,0.0,0.0,0.0,0.0,0.0,0.0,0.0,0.0,0.0,0.0,0.0,0.0,0.0,0.0,0.0,0.0,0.0,0.0,0.0,0.0,0.0,0.0,0.0,0.0,0.0,0.0,0.0,0.0,0.0,0.0,0.0,0.0,0.0,0.0,0.0,0.0,0.0,0.0,0.0,0.0,0.0,0.0,0.0,0.0,0.0,0.0,0.0,0.0,0.0,0.0,0.0,0.0,0.0,0.0,0.0,0.0,0.0,0.0,0.0,0.0,0.0,0.0,0.0,0.0,0.0,0.0,0.0,0.0,0.0,0.0,0.0,0.0,0.0,0.0,0.0,0.0,0.0,0.0,0.0,1.1423,1.1938,1.2432,1.2647,1.1812,1.0435,0.8401,0.6043,0.3904,0.2485,0.1415,0.0599,0.0093,0.0,0.0,0.0,0.0,0.0,0.0,0.0,0.0,0.0,0.0,0.0,0.0,0.0,0.0,0.0,0.0,0.0,0.0,0.0,0.0,0.0,0.0,0.0,0.0,0.0,0.0,0.0,0.0,0.0,0.0,0.0,0.0,0.0,0.0,0.0,0.0,0.0,0.0,0.0,0.0,0.0,0.0,0.0,0.0,0.0,0.0,0.0,0.0,0.0,0.0,0.0,0.0,0.0,0.0,0.0,0.0,0.0,0.0,0.0,0.0,0.0,0.0,0.0,0.0,0.0,0.0,0.0,0.0,0.0,0.0,0.0,0.0,0.0,0.0,0.0,0.0,0.0,0.0,0.0,0.0,0.0,0.0,0.0,0.0,0.0,0.0,0.0,0.0,0.0,0.0,0.0,0.0,0.0,0.0,0.0,0.0,0.0,0.0,0.0,1.1423,1.2047,1.2535,1.2354,1.1488,1.0037,0.7681,0.5323,0.3182,0.1706,0.0949,0.0456,0.0092,0.0,0.0,0.0,0.0,0.0,0.0,0.0,0.0,0.0,0.0,0.0,0.0,0.0,0.0,0.0,0.0,0.0,0.0,0.0,0.0,0.0,0.0,0.0,0.0,0.0,0.0,0.0,0.0,0.0,0.0,0.0,0.0,0.0,0.0,0.0,0.0,0.0,0.0,0.0,0.0,0.0,0.0,0.0,0.0,0.0,0.0,0.0,0.0,0.0,0.0,0.0,0.0,0.0,0.0,0.0,0.0,0.0,0.0,0.0,0.0,0.0,0.0,0.0,0.0,0.0,0.0,0.0,0.0,0.0,0.0,0.0,0.0,0.0,0.0,0.0,0.0,0.0,0.0,0.0,0.0,0.0,0.0,0.0,0.0,0.0,0.0,0.0,0.0,0.0,0.0,0.0,0.0,0.0,0.0,0.0,0.0,0.0,0.0,0.0,1.1172,1.2084,1.2789,1.2204,1.1298,0.9931,0.7552,0.5251,0.3182,0.1706,0.0719,0.009,0.0,0.0,0.0,0.0,0.0,0.0,0.0,0.0,0.0,0.0,0.0,0.0,0.0,0.0,0.0,0.0,0.0,0.0,0.0,0.0,0.0,0.0,0.0,0.0,0.0,0.0,0.0,0.0,0.0,0.0,0.0,0.0,0.0,0.0,0.0,0.0,0.0,0.0,0.0,0.0,0.0,0.0,0.0,0.0,0.0,0.0,0.0,0.0,0.0,0.0,0.0,0.0,0.0,0.0,0.0,0.0,0.0,0.0,0.0,0.0,0.0,0.0,0.0,0.0,0.0,0.0,0.0,0.0,0.0,0.0,0.0,0.0,0.0,0.0,0.0,0.0,0.0,0.0,0.0,0.0,0.0,0.0,0.0,0.0,0.0,0.0,0.0,0.0,0.0,0.0,0.0,0.0,0.0,0.0,0.0,0.0,0.0,0.0,0.0,0.0,1.1246,1.2047,1.2635,1.2357,1.1314,0.9894,0.8173,0.5577,0.3205,0.2061,0.0852,0.0,0.0,0.0,0.0,0.0,0.0,0.0,0.0,0.0,0.0,0.0,0.0,0.0,0.0,0.0,0.0,0.0,0.0,0.0,0.0,0.0,0.0,0.0,0.0,0.0,0.0,0.0,0.0,0.0,0.0,0.0,0.0,0.0,0.0,0.0,0.0,0.0,0.0,0.0,0.0,0.0,0.0,0.0,0.0,0.0,0.0,0.0,0.0,0.0,0.0,0.0,0.0,0.0,0.0,0.0,0.0,0.0,0.0,0.0,0.0,0.0,0.0,0.0,0.0,0.0,0.0,0.0,0.0,0.0,0.0,0.0,0.0,0.0,0.0,0.0,0.0,0.0,0.0,0.0,0.0,0.0,0.0,0.0,0.0,0.0,0.0,0.0,0.0,0.0,0.0,0.0,0.0,0.0,0.0,0.0,0.0,0.0,0.0,0.0,0.0,0.0,1.1246,1.184,1.2311,1.2284,1.1253,0.9897,0.858,0.5873,0.3406,0.2364,0.103,0.0,0.0,0.0,0.0,0.0,0.0,0.0,0.0,0.0,0.0,0.0,0.0,0.0,0.0,0.0,0.0,0.0,0.0,0.0,0.0,0.0,0.0,0.0,0.0,0.0,0.0,0.0,0.0,0.0,0.0,0.0,0.0,0.0,0.0,0.0,0.0,0.0,0.0,0.0,0.0,0.0,0.0,0.0,0.0,0.0,0.0,0.0,0.0,0.0,0.0,0.0,0.0,0.0,0.0,0.0,0.0,0.0,0.0,0.0,0.0,0.0,0.0,0.0,0.0,0.0,0.0,0.0,0.0,0.0,0.0,0.0,0.0,0.0,0.0,0.0,0.0,0.0,0.0,0.0,0.0,0.0,0.0,0.0,0.0,0.0,0.0,0.0,0.0,0.0,0.0,0.0,0.0,0.0,0.0,0.0,0.0,0.0,0.0,0.0,0.0,0.0,1.086,1.1381,1.1791,1.1688,1.1025,0.9942,0.8298,0.5991,0.3751,0.2387,0.0981,0.0,0.0,0.0,0.0,0.0,0.0,0.0,0.0,0.0,0.0,0.0,0.0,0.0,0.0,0.0,0.0,0.0,0.0,0.0,0.0,0.0,0.0,0.0,0.0,0.0,0.0,0.0,0.0,0.0,0.0,0.0,0.0,0.0,0.0,0.0,0.0,0.0,0.0,0.0,0.0,0.0,0.0,0.0,0.0,0.0,0.0,0.0,0.0,0.0,0.0,0.0,0.0,0.0,0.0,0.0,0.0,0.0,0.0,0.0,0.0,0.0,0.0,0.0,0.0,0.0,0.0,0.0,0.0,0.0,0.0,0.0,0.0,0.0,0.0,0.0,0.0,0.0,0.0,0.0,0.0,0.0,0.0,0.0,0.0,0.0,0.0,0.0,0.0,0.0,0.0,0.0,0.0,0.0,0.0,0.0,0.0,0.0,0.0,0.0,0.0,0.0,1.0548,1.1023,1.1462,1.1677,1.091,0.9836,0.882,0.6237,0.3745,0.277,0.1196,0.0,0.0,0.0,0.0,0.0,0.0,0.0,0.0,0.0,0.0,0.0,0.0,0.0,0.0,0.0,0.0,0.0,0.0,0.0,0.0,0.0,0.0,0.0,0.0,0.0,0.0,0.0,0.0,0.0,0.0,0.0,0.0,0.0,0.0,0.0,0.0,0.0,0.0,0.0,0.0,0.0,0.0,0.0,0.0,0.0,0.0,0.0,0.0,0.0,0.0,0.0,0.0,0.0,0.0,0.0,0.0,0.0,0.0,0.0,0.0,0.0,0.0,0.0,0.0,0.0,0.0,0.0,0.0,0.0,0.0,0.0,0.0,0.0,0.0,0.0,0.0,0.0,0.0,0.0,0.0,0.0,0.0,0.0,0.0,0.0,0.0,0.0,0.0,0.0,0.0,0.0,0.0,0.0,0.0,0.0,0.0,0.0,0.0,0.0,0.0,0.0,1.0249,1.067,1.1097,1.1414,1.0577,0.9536,0.8919,0.622,0.3646,0.2893,0.1264,0.0,0.0,0.0,0.0,0.0,0.0,0.0,0.0,0.0,0.0,0.0,0.0,0.0,0.0,0.0,0.0,0.0,0.0,0.0,0.0,0.0,0.0,0.0,0.0,0.0,0.0,0.0,0.0,0.0,0.0,0.0,0.0,0.0,0.0,0.0,0.0,0.0,0.0,0.0,0.0,0.0,0.0,0.0,0.0,0.0,0.0,0.0,0.0,0.0,0.0,0.0,0.0,0.0,0.0,0.0,0.0,0.0,0.0,0.0,0.0,0.0,0.0,0.0,0.0,0.0,0.0,0.0,0.0,0.0,0.0,0.0,0.0,0.0,0.0,0.0,0.0,0.0,0.0,0.0,0.0,0.0,0.0,0.0,0.0,0.0,0.0,0.0,0.0,0.0,0.0,0.0,0.0,0.0,0.0,0.0,0.0,0.0,0.0,0.0,0.0,0.0,0.0,0.0,0.0,1.0867,1.0077,0.9128,0.8512,0.6004,0.3554,0.2761,0.1231,0.0,0.0,0.0,0.0,0.0,0.0,0.0,0.0,0.0,0.0,0.0,0.0,0.0,0.0,0.0,0.0,0.0,0.0,0.0,0.0,0.0,0.0,0.0,0.0,0.0,0.0,0.0,0.0,0.0,0.0,0.0,0.0,0.0,0.0,0.0,0.0,0.0,0.0,0.0,0.0,0.0,0.0,0.0,0.0,0.0,0.0,0.0,0.0,0.0,0.0,0.0,0.0,0.0,0.0,0.0,0.0,0.0,0.0,0.0,0.0,0.0,0.0,0.0,0.0,0.0,0.0,0.0,0.0,0.0,0.0,0.0,0.0,0.0,0.0,0.0,0.0,0.0,0.0,0.0,0.0,0.0,0.0,0.0,0.0,0.0,0.0,0.0,0.0,0.0,0.0,0.0,0.0,0.0,0.0,0.0,0.0,0.0,0.0,0.0,0.0,0.0,0.992,0.0,0.0,0.0,0.0,0.0,0.8355,0.5816,0.3429,0.2695,0.1168,0.0,0.0,0.0,0.0,0.0,0.0,0.0,0.0,0.0,0.0,0.0,0.0,0.0,0.0,0.0,0.0,0.0,0.0,0.0,0.0,0.0,0.0,0.0,0.0,0.0,0.0,0.0,0.0,0.0,0.0,0.0,0.0,0.0,0.0,0.0,0.0,0.0,0.0,0.0,0.0,0.0,0.0,0.0,0.0,0.0,0.0,0.0,0.0,0.0,0.0,0.0,0.0,0.0,0.0,0.0,0.0,0.0,0.0,0.0,0.0,0.0,0.0,0.0,0.0,0.0,0.0,0.0,0.0,0.0,0.0,0.0,0.0,0.0,0.0,0.0,0.0,0.0,0.0,0.0,0.0,0.0,0.0,0.0,0.0,0.0,0.0,0.0,0.0,0.0,0.0,0.0,0.0,0.0,0.0,0.0,0.0,0.0,0.0,0.0,0.0,0.0,0.9913,1.0191,1.0439,1.0588,0.0,0.0,0.8167,0.5887,0.3682,0.2649,0.1293,0.0205,0.0042,0.0,0.0,0.0,0.0,0.0,0.0,0.0,0.0,0.0,0.0,0.0,0.0,0.0,0.0,0.0,0.0,0.0,0.0,0.0,0.0,0.0,0.0,0.0,0.0,0.0,0.0,0.0,0.0,0.0,0.0,0.0,0.0,0.0,0.0,0.0,0.0,0.0,0.0,0.0,0.0,0.0,0.0,0.0,0.0,0.0,0.0,0.0,0.0,0.0,0.0,0.0,0.0,0.0,0.0,0.0,0.0,0.0,0.0,0.0,0.0,0.0,0.0,0.0,0.0,0.0,0.0,0.0,0.0,0.0,0.0,0.0,0.0,0.0,0.0,0.0,0.0,0.0,0.0,0.0,0.0,0.0,0.0,0.0,0.0,0.0,0.0,0.0,0.0,0.0,0.0,0.0,0.0,0.0,0.0,0.0,0.0,0.0,0.0,0.0,0.9967,1.0157,1.0363,1.046,0.9888,0.0,0.8043,0.6109,0.4116,0.2741,0.1474,0.0472,0.0079,0.0,0.0,0.0,0.0,0.0,0.0,0.0,0.0,0.0,0.0,0.0,0.0,0.0,0.0,0.0,0.0,0.0,0.0,0.0,0.0,0.0,0.0,0.0,0.0,0.0,0.0,0.0,0.0,0.0,0.0,0.0,0.0,0.0,0.0,0.0,0.0,0.0,0.0,0.0,0.0,0.0,0.0,0.0,0.0,0.0,0.0,0.0,0.0,0.0,0.0,0.0,0.0,0.0,0.0,0.0,0.0,0.0,0.0,0.0,0.0,0.0,0.0,0.0,0.0,0.0,0.0,0.0,0.0,0.0,0.0,0.0,0.0,0.0,0.0,0.0,0.0,0.0,0.0,0.0,0.0,0.0,0.0,0.0,0.0,0.0,0.0,0.0,0.0,0.0,0.0,0.0,0.0,0.0,0.0,0.0,0.0,0.0,0.0,0.0,1.0188,1.0337,1.046,1.0487,0.9888,0.0,0.8236,0.6206,0.4158,0.2981,0.1589,0.0465,0.0078,0.0,0.0,0.0,0.0,0.0,0.0,0.0,0.0,0.0,0.0,0.0,0.0,0.0,0.0,0.0,0.0,0.0,0.0,0.0,0.0,0.0,0.0,0.0,0.0,0.0,0.0,0.0,0.0,0.0,0.0,0.0,0.0,0.0,0.0,0.0,0.0,0.0,0.0,0.0,0.0,0.0,0.0,0.0,0.0,0.0,0.0,0.0,0.0,0.0,0.0,0.0,0.0,0.0,0.0,0.0,0.0,0.0,0.0,0.0,0.0,0.0,0.0,0.0,0.0,0.0,0.0,0.0,0.0,0.0,0.0,0.0,0.0,0.0,0.0,0.0,0.0,0.0,0.0,0.0,0.0,0.0,0.0,0.0,0.0,0.0,0.0,0.0,0.0,0.0,0.0,0.0,0.0,0.0,0.0,0.0,0.0,0.0,0.0,0.0,1.0548,1.0609,1.0643,1.0825,0.0,0.0,0.0,0.6956,0.5097,0.3638,0.2189,0.0966,0.0372,0.0113,0.0,0.0,0.0,0.0,0.0,0.0,0.0,0.0,0.0,0.0,0.0,0.0,0.0,0.0,0.0,0.0,0.0,0.0,0.0,0.0,0.0,0.0,0.0,0.0,0.0,0.0,0.0,0.0,0.0,0.0,0.0,0.0,0.0,0.0,0.0,0.0,0.0,0.0,0.0,0.0,0.0,0.0,0.0,0.0,0.0,0.0,0.0,0.0,0.0,0.0,0.0,0.0,0.0,0.0,0.0,0.0,0.0,0.0,0.0,0.0,0.0,0.0,0.0,0.0,0.0,0.0,0.0,0.0,0.0,0.0,0.0,0.0,0.0,0.0,0.0,0.0,0.0,0.0,0.0,0.0,0.0,0.0,0.0,0.0,0.0,0.0,0.0,0.0,0.0,0.0,0.0,0.0,0.0,0.0,0.0,0.0,0.0,0.0,1.0786,1.0766,1.0725,0.0,0.0,1.0045,0.0,0.0,0.0,0.4313,0.2751,0.146,0.0642,0.0218,0.0,0.0,0.0,0.0,0.0,0.0,0.0,0.0,0.0,0.0,0.0,0.0,0.0,0.0,0.0,0.0,0.0,0.0,0.0,0.0,0.0,0.0,0.0,0.0,0.0,0.0,0.0,0.0,0.0,0.0,0.0,0.0,0.0,0.0,0.0,0.0,0.0,0.0,0.0,0.0,0.0,0.0,0.0,0.0,0.0,0.0,0.0,0.0,0.0,0.0,0.0,0.0,0.0,0.0,0.0,0.0,0.0,0.0,0.0,0.0,0.0,0.0,0.0,0.0,0.0,0.0,0.0,0.0,0.0,0.0,0.0,0.0,0.0,0.0,0.0,0.0,0.0,0.0,0.0,0.0,0.0,0.0,0.0,0.0,0.0,0.0,0.0,0.0,0.0,0.0,0.0,0.0,0.0,0.0,0.0,0.0,0.0,0.0,0.0,0.0,0.0,0.0,0.9989,0.0,0.0,0.0,0.6069,0.4569,0.0,0.1441,0.0633,0.0,0.0,0.0,0.0,0.0,0.0,0.0,0.0,0.0,0.0,0.0,0.0,0.0,0.0,0.0,0.0,0.0,0.0,0.0,0.0,0.0,0.0,0.0,0.0,0.0,0.0,0.0,0.0,0.0,0.0,0.0,0.0,0.0,0.0,0.0,0.0,0.0,0.0,0.0,0.0,0.0,0.0,0.0,0.0,0.0,0.0,0.0,0.0,0.0,0.0,0.0,0.0,0.0,0.0,0.0,0.0,0.0,0.0,0.0,0.0,0.0,0.0,0.0,0.0,0.0,0.0,0.0,0.0,0.0,0.0,0.0,0.0,0.0,0.0,0.0,0.0,0.0,0.0,0.0,0.0,0.0,0.0,0.0,0.0,0.0,0.0,0.0,0.0,0.0,0.0,0.0,0.0,0.0,0.0,0.0,0.0,0.0,0.0,0.0,0.0,0.0,0.0,0.0,0.0,0.0,0.866,0.0,0.6095,0.0,0.0,0.0,0.0,0.0,0.0,0.0,0.0,0.0,0.0,0.0,0.0,0.0,0.0,0.0,0.0,0.0,0.0,0.0,0.0,0.0,0.0,0.0,0.0,0.0,0.0,0.0,0.0,0.0,0.0,0.0,0.0,0.0,0.0,0.0,0.0,0.0,0.0,0.0,0.0,0.0,0.0,0.0,0.0,0.0,0.0,0.0,0.0,0.0,0.0,0.0,0.0,0.0,0.0,0.0,0.0,0.0,0.0,0.0,0.0,0.0,0.0,0.0,0.0,0.0,0.0,0.0,0.0,0.0,0.0,0.0,0.0,0.0,0.0,0.0,0.0,0.0,0.0,0.0,0.0,0.0,0.0,0.0,0.0,0.0,0.0,0.0,0.0,0.0,0.0,0.0,0.0,0.0,0.0,0.0,0.0,0.0,0.0,0.0,0.0,0.0,0.0,0.0,0.8848,0.0,0.0,0.0,0.0,0.0,0.0,0.0,0.0,0.0,0.0,0.0,0.0,0.0,0.0,0.0,0.0,0.0,0.0,0.0,0.0,0.0,0.0,0.0,0.0,0.0,0.0,0.0,0.0,0.0,0.0,0.0,0.0,0.0,0.0,0.0,0.0,0.0,0.0,0.0,0.0,0.0,0.0,0.0,0.0,0.0,0.0,0.0,0.0,0.0,0.0,0.0,0.0,0.0,0.0,0.0,0.0,0.0,0.0,0.0,0.0,0.0,0.0,0.0,0.0,0.0,0.0,0.0,0.0,0.0,0.0,0.0,0.0,0.0,0.0,0.0,0.0,0.0,0.0,0.0,0.0,0.0,0.0,0.0,0.0,0.0,0.0,0.0,0.0,0.0,0.0,0.0,0.0,0.0,0.0,0.0,0.0,0.0,0.0,0.0,0.0,0.0,0.0,0.0,0.0,0.0,0.0,0.0,0.0,0.0,0.0,0.0,0.0,0.0,0.0,0.6692,0.0,0.0,0.0,0.0,0.5004,0.0,0.0,0.0,0.0,0.0,0.0,0.0,0.0,0.0,0.0,0.0,0.0,0.0,0.0,0.0,0.0,0.0,0.0,0.0,0.0,0.0,0.0,0.0,0.0,0.0,0.0,0.0,0.0,0.0,0.0,0.0,0.0,0.0,0.0,0.0,0.0,0.0,0.0,0.0,0.0,0.0,0.0,0.0,0.0,0.0,0.0,0.0,0.0,0.0,0.0,0.0,0.0,0.0,0.0,0.0,0.0,0.0,0.0,0.0,0.0,0.0,0.0,0.0,0.0,0.0,0.0,0.0,0.0,0.0,0.0,0.0,0.0,0.0,0.0,0.0,0.0,0.0,0.0,0.0,0.0,0.0,0.0,0.0,0.0,0.0,0.0,0.0,0.0,0.0,0.0,0.0,0.0,0.0,0.0,0.0,0.0,0.0,0.0,0.0,0.0,0.0,0.0,0.0,0.0,0.0,0.5897,0.5087,0.0,0.0,0.0,0.0,0.0,0.0,0.0,0.0,0.0,0.0237,0.0,0.0,0.0,0.0,0.0,0.0,0.0,0.0,0.0,0.0,0.0,0.0,0.0,0.0,0.0,0.0,0.0,0.0,0.0,0.0,0.0,0.0,0.0,0.0,0.0,0.0,0.0,0.0,0.0,0.0,0.0,0.0,0.0,0.0,0.0,0.0,0.0,0.0,0.0,0.0,0.0,0.0,0.0,0.0,0.0,0.0,0.0,0.0,0.0,0.0,0.0,0.0,0.0,0.0,0.0,0.0,0.0,0.0,0.0,0.0,0.0,0.0,0.0,0.0,0.0,0.0,0.0,0.0,0.0,0.0,0.0,0.0,0.0,0.0,0.0,0.0,0.0,0.0,0.0,0.0,0.0,0.0,0.0,0.0,0.0,0.0,0.0,0.0,0.0,0.0,0.0,0.0,0.0,0.0,0.0,0.0,0.0,0.0,0.3482,0.3836,0.0,0.3403,0.3264,0.0,0.2698,0.0,0.0,0.0,0.0,0.0,0.0,0.0,0.0,0.0,0.0,0.0,0.0,0.0,0.0,0.0,0.0,0.0,0.0,0.0,0.0,0.0,0.0,0.0,0.0,0.0,0.0,0.0,0.0,0.0,0.0,0.0,0.0,0.0,0.0,0.0,0.0,0.0,0.0,0.0,0.0,0.0,0.0,0.0,0.0,0.0,0.0,0.0,0.0,0.0,0.0,0.0,0.0,0.0,0.0,0.0,0.0,0.0,0.0,0.0,0.0,0.0,0.0,0.0,0.0,0.0,0.0,0.0,0.0,0.0,0.0,0.0,0.0,0.0,0.0,0.0,0.0,0.0,0.0,0.0,0.0,0.0,0.0,0.0,0.0,0.0,0.0,0.0,0.0,0.0,0.0,0.0,0.0,0.0,0.0,0.0,0.0,0.0,0.0,0.0,0.0,0.0,0.0,0.0,0.0,0.0]},{"header":{"parameterUnit":"m.s-1","parameterCategory":1,"la1":30.6,"la2":29.2853,"lo1":-89.7004,"lo2":-87.6739,"dy":0.0162,"dx":0.0183,"nx":112,"ny":82,"refTime":"2024-09-05T12:00:00:Z","depth":0,"parameterNumber":3,"parameterNumberName":"V-component_of_WINDS"},"data":[0.0,0.0,0.0,0.0,0.0,0.0,0.0,0.0,0.0,0.0,0.0,0.0,0.0,0.0,0.0,0.0,0.0,0.0,0.0,0.0,0.0,0.0,0.0,0.0,0.0,0.0,0.0,0.0,0.0,0.0,0.0,0.0,0.0,0.0,0.0,0.0,0.0,0.0,0.0,0.0,0.0,0.0,0.0,0.0,0.0,0.0,0.0,0.0,0.0,0.0,0.0,0.0,0.0,0.0,0.0,0.0,0.0,0.0,0.0,0.0,0.0,0.0,0.0,0.0,0.0,0.0,0.0,0.0,0.0,0.0,0.0,0.0,0.0,0.0,0.0,0.0,0.0,0.0,0.0,0.0,0.0,0.0,0.0,0.0,0.0,0.0,0.0,0.0,0.0,0.0,5.4089,5.6898,5.9365,6.0787,6.0787,5.9242,5.755,5.5824,0.0,0.0,0.0,0.0,0.0,0.0,0.0,0.0,0.0,0.0,0.0,0.0,0.0,0.0,0.0,0.0,0.0,0.0,0.0,0.0,0.0,0.0,0.0,0.0,0.0,0.0,0.0,0.0,0.0,0.0,0.0,0.0,0.0,0.0,0.0,0.0,0.0,0.0,0.0,0.0,0.0,0.0,0.0,0.0,0.0,0.0,0.0,0.0,0.0,0.0,0.0,0.0,0.0,0.0,0.0,0.0,0.0,0.0,0.0,0.0,0.0,0.0,0.0,0.0,0.0,0.0,0.0,0.0,0.0,0.0,0.0,0.0,0.0,0.0,0.0,0.0,0.0,0.0,0.0,0.0,0.0,0.0,0.0,0.0,0.0,0.0,0.0,0.0,0.0,0.0,0.0,0.0,0.0,0.0,0.0,0.0,0.0,0.0,0.0,0.0,0.0,0.0,0.0,0.0,5.5192,5.8546,6.0056,6.0787,6.0787,5.9242,5.755,5.5824,0.0,0.0,0.0,0.0,0.0,0.0,0.0,0.0,0.0,0.0,0.0,0.0,0.0,0.0,0.0,0.0,0.0,0.0,0.0,0.0,0.0,0.0,0.0,0.0,0.0,0.0,0.0,0.0,0.0,0.0,0.0,0.0,0.0,0.0,0.0,0.0,0.0,0.0,0.0,0.0,0.0,0.0,0.0,0.0,0.0,0.0,0.0,0.0,0.0,0.0,0.0,0.0,0.0,0.0,0.0,0.0,0.0,0.0,0.0,0.0,0.0,0.0,0.0,0.0,0.0,0.0,0.0,0.0,0.0,0.0,0.0,0.0,0.0,0.0,0.0,0.0,0.0,0.0,0.0,0.0,0.0,0.0,0.0,0.0,0.0,0.0,0.0,0.0,0.0,0.0,0.0,0.0,0.0,0.0,0.0,0.0,0.0,0.0,0.0,0.0,0.0,0.0,0.0,5.5223,5.7232,5.9735,6.0473,6.0787,6.0787,5.9242,5.755,5.5824,5.2554,0.0,0.0,0.0,0.0,0.0,0.0,0.0,0.0,0.0,0.0,0.0,0.0,0.0,0.0,0.0,0.0,0.0,0.0,0.0,0.0,0.0,0.0,0.0,0.0,0.0,0.0,0.0,0.0,0.0,0.0,0.0,0.0,0.0,0.0,0.0,0.0,0.0,0.0,0.0,0.0,0.0,0.0,0.0,0.0,0.0,0.0,0.0,0.0,0.0,0.0,0.0,0.0,0.0,0.0,0.0,0.0,0.0,0.0,0.0,0.0,0.0,0.0,0.0,0.0,0.0,0.0,0.0,0.0,0.0,0.0,0.0,0.0,0.0,0.0,0.0,0.0,0.0,0.0,0.0,0.0,0.0,0.0,0.0,0.0,0.0,0.0,0.0,0.0,0.0,0.0,0.0,0.0,0.0,0.0,0.0,0.0,0.0,0.0,0.0,0.0,0.0,0.0,5.6964,5.87,6.0425,6.0703,6.0787,6.0787,5.9242,5.755,5.5824,5.2554,0.0,0.0,0.0,0.0,0.0,0.0,0.0,0.0,0.0,0.0,0.0,0.0,0.0,0.0,0.0,0.0,0.0,0.0,0.0,0.0,0.0,0.0,0.0,0.0,0.0,0.0,0.0,0.0,0.0,0.0,0.0,0.0,0.0,0.0,0.0,0.0,0.0,0.0,0.0,0.0,0.0,0.0,0.0,0.0,0.0,0.0,0.0,0.0,0.0,0.0,0.0,0.0,0.0,0.0,0.0,0.0,0.0,0.0,0.0,0.0,0.0,0.0,0.0,0.0,0.0,0.0,0.0,0.0,0.0,0.0,0.0,0.0,0.0,0.0,0.0,0.0,0.0,0.0,0.0,0.0,0.0,0.0,0.0,0.0,0.0,0.0,0.0,0.0,0.0,0.0,0.0,0.0,0.0,0.0,0.0,0.0,0.0,0.0,0.0,0.0,0.0,0.0,5.6856,5.8687,6.0425,6.0703,6.0787,6.0787,5.9242,5.755,5.5824,5.2554,0.0,0.0,0.0,0.0,0.0,0.0,0.0,0.0,0.0,0.0,0.0,0.0,0.0,0.0,0.0,0.0,0.0,0.0,0.0,0.0,0.0,0.0,0.0,0.0,0.0,0.0,0.0,0.0,0.0,0.0,0.0,0.0,0.0,0.0,0.0,0.0,0.0,0.0,0.0,0.0,0.0,0.0,0.0,0.0,0.0,0.0,0.0,0.0,0.0,0.0,0.0,0.0,0.0,0.0,0.0,0.0,0.0,0.0,0.0,0.0,0.0,0.0,0.0,0.0,0.0,0.0,0.0,0.0,0.0,0.0,0.0,0.0,0.0,0.0,0.0,0.0,0.0,0.0,0.0,0.0,0.0,0.0,0.0,0.0,0.0,0.0,0.0,0.0,0.0,0.0,0.0,0.0,0.0,0.0,0.0,0.0,0.0,0.0,0.0,0.0,0.0,0.0,5.8145,6.0086,6.1333,6.1579,6.1402,6.0864,5.9242,5.755,5.5824,0.0,0.0,0.0,0.0,0.0,0.0,0.0,0.0,0.0,0.0,0.0,0.0,0.0,0.0,0.0,0.0,0.0,0.0,0.0,0.0,0.0,0.0,0.0,0.0,0.0,0.0,0.0,0.0,0.0,0.0,0.0,0.0,0.0,0.0,0.0,0.0,0.0,0.0,0.0,0.0,0.0,0.0,0.0,0.0,0.0,0.0,0.0,0.0,0.0,0.0,0.0,0.0,0.0,0.0,0.0,0.0,0.0,0.0,0.0,0.0,0.0,0.0,0.0,0.0,0.0,0.0,0.0,0.0,0.0,0.0,0.0,0.0,0.0,0.0,0.0,0.0,0.0,0.0,0.0,0.0,0.0,0.0,0.0,0.0,0.0,0.0,0.0,0.0,0.0,0.0,0.0,0.0,0.0,0.0,0.0,0.0,0.0,0.0,0.0,0.0,0.0,0.0,5.6491,5.907,6.1019,6.2254,6.2207,6.1864,6.1248,5.9435,5.755,5.5824,0.0,0.0,0.0,0.0,0.0,0.0,0.0,0.0,0.0,0.0,0.0,0.0,0.0,0.0,0.0,0.0,0.0,0.0,0.0,0.0,0.0,0.0,0.0,0.0,0.0,0.0,0.0,0.0,0.0,0.0,0.0,0.0,0.0,0.0,0.0,0.0,0.0,0.0,0.0,0.0,0.0,0.0,0.0,0.0,0.0,0.0,0.0,0.0,0.0,0.0,0.0,0.0,0.0,0.0,0.0,0.0,0.0,0.0,0.0,0.0,0.0,0.0,0.0,0.0,0.0,0.0,0.0,0.0,0.0,0.0,0.0,0.0,0.0,0.0,0.0,0.0,0.0,0.0,0.0,0.0,0.0,0.0,0.0,0.0,0.0,0.0,0.0,0.0,0.0,0.0,0.0,0.0,0.0,0.0,0.0,0.0,0.0,0.0,0.0,0.0,0.0,0.0,5.7257,5.9393,6.1204,6.3022,6.2559,6.2095,6.2095,5.9742,5.755,0.0,0.0,0.0,0.0,0.0,0.0,0.0,0.0,0.0,0.0,0.0,0.0,0.0,0.0,0.0,0.0,0.0,0.0,0.0,0.0,0.0,0.0,0.0,0.0,0.0,0.0,0.0,0.0,0.0,0.0,0.0,0.0,0.0,0.0,0.0,0.0,0.0,0.0,0.0,0.0,0.0,0.0,0.0,0.0,0.0,0.0,0.0,0.0,0.0,0.0,0.0,0.0,0.0,0.0,0.0,0.0,0.0,0.0,0.0,0.0,0.0,0.0,0.0,0.0,0.0,0.0,0.0,0.0,0.0,0.0,0.0,0.0,0.0,0.0,0.0,0.0,0.0,0.0,0.0,0.0,0.0,0.0,0.0,0.0,0.0,0.0,0.0,0.0,0.0,0.0,0.0,0.0,0.0,0.0,0.0,0.0,0.0,0.0,0.0,0.0,0.0,0.0,0.0,5.8217,6.0844,6.2803,6.4046,6.3423,6.2704,6.2133,5.9742,5.755,5.5824,0.0,0.0,0.0,0.0,0.0,0.0,0.0,0.0,0.0,0.0,0.0,0.0,0.0,0.0,0.0,0.0,0.0,0.0,0.0,0.0,0.0,0.0,0.0,0.0,0.0,0.0,0.0,0.0,0.0,0.0,0.0,0.0,0.0,0.0,0.0,0.0,0.0,0.0,0.0,0.0,0.0,0.0,0.0,0.0,0.0,0.0,0.0,0.0,0.0,0.0,0.0,0.0,0.0,0.0,0.0,0.0,0.0,0.0,0.0,0.0,0.0,0.0,0.0,0.0,0.0,0.0,0.0,0.0,0.0,0.0,0.0,0.0,0.0,0.0,0.0,0.0,0.0,0.0,0.0,0.0,0.0,0.0,0.0,0.0,0.0,0.0,0.0,0.0,0.0,0.0,0.0,0.0,0.0,0.0,0.0,0.0,0.0,0.0,0.0,0.0,0.0,0.0,5.9116,6.1675,6.3604,6.4962,6.4359,6.3474,6.2666,6.0242,5.7896,5.5824,0.0,0.0,0.0,0.0,0.0,0.0,0.0,0.0,0.0,0.0,0.0,0.0,0.0,0.0,0.0,0.0,0.0,0.0,0.0,0.0,0.0,0.0,0.0,0.0,0.0,0.0,0.0,0.0,0.0,0.0,0.0,0.0,0.0,0.0,0.0,0.0,0.0,0.0,0.0,0.0,0.0,0.0,0.0,0.0,0.0,0.0,0.0,0.0,0.0,0.0,0.0,0.0,0.0,0.0,0.0,0.0,0.0,0.0,0.0,0.0,0.0,0.0,0.0,0.0,0.0,0.0,0.0,0.0,0.0,0.0,0.0,0.0,0.0,0.0,0.0,0.0,0.0,0.0,0.0,0.0,0.0,0.0,0.0,0.0,0.0,0.0,0.0,0.0,0.0,0.0,0.0,0.0,0.0,0.0,0.0,0.0,0.0,0.0,0.0,0.0,0.0,0.0,5.9915,6.207,6.3898,6.5686,6.5128,6.4237,6.3352,6.105,5.8511,5.5978,0.0,0.0,0.0,0.0,0.0,0.0,0.0,0.0,0.0,0.0,0.0,0.0,0.0,0.0,0.0,0.0,0.0,0.0,0.0,0.0,0.0,0.0,0.0,0.0,0.0,0.0,0.0,0.0,0.0,0.0,0.0,0.0,0.0,0.0,0.0,0.0,0.0,0.0,0.0,0.0,0.0,0.0,0.0,0.0,0.0,0.0,0.0,0.0,0.0,0.0,0.0,0.0,0.0,0.0,0.0,0.0,0.0,0.0,0.0,0.0,4.8847,0.0,0.0,0.0,0.0,0.0,0.0,0.0,0.0,0.0,0.0,0.0,0.0,0.0,0.0,0.0,0.0,0.0,0.0,0.0,0.0,0.0,0.0,0.0,0.0,0.0,0.0,0.0,0.0,0.0,0.0,0.0,0.0,0.0,0.0,0.0,0.0,0.0,0.0,0.0,0.0,0.0,6.07,6.2792,6.443,6.5685,6.5096,6.4237,6.3352,6.1589,5.944,5.6863,5.4977,0.0,0.0,0.0,0.0,0.0,0.0,0.0,0.0,0.0,0.0,0.0,0.0,0.0,0.0,0.0,0.0,0.0,0.0,0.0,0.0,0.0,0.0,0.0,0.0,0.0,0.0,0.0,0.0,0.0,0.0,0.0,0.0,0.0,0.0,0.0,0.0,0.0,0.0,0.0,0.0,0.0,0.0,0.0,0.0,0.0,0.0,0.0,0.0,0.0,0.0,0.0,0.0,0.0,0.0,0.0,0.0,0.0,0.0,0.0,0.0,5.0865,0.0,0.0,0.0,0.0,0.0,0.0,0.0,0.0,0.0,0.0,0.0,0.0,0.0,0.0,0.0,0.0,0.0,0.0,0.0,0.0,0.0,0.0,0.0,0.0,0.0,0.0,0.0,0.0,0.0,0.0,0.0,0.0,0.0,0.0,0.0,0.0,0.0,0.0,0.0,0.0,6.1491,6.3641,6.5207,6.6273,6.6045,6.5282,6.4045,6.2397,6.0517,5.8325,5.6632,0.0,0.0,0.0,0.0,0.0,0.0,0.0,0.0,0.0,0.0,0.0,0.0,0.0,0.0,0.0,0.0,0.0,0.0,0.0,0.0,0.0,0.0,0.0,0.0,0.0,0.0,0.0,0.0,0.0,0.0,0.0,0.0,0.0,0.0,0.0,0.0,0.0,0.0,0.0,0.0,0.0,0.0,0.0,0.0,0.0,0.0,0.0,0.0,0.0,0.0,0.0,0.0,0.0,5.8462,5.8902,6.004,6.004,6.004,5.9857,5.637,5.5012,5.506,5.2784,0.0,0.0,0.0,0.0,0.0,0.0,0.0,0.0,0.0,0.0,0.0,0.0,0.0,0.0,0.0,0.0,0.0,0.0,0.0,0.0,0.0,0.0,0.0,0.0,5.8327,5.7104,0.0,0.0,0.0,0.0,0.0,0.0,0.0,0.0,0.0,0.0,0.0,0.0,6.2571,6.4749,6.6279,6.7135,6.7153,6.6481,6.4974,6.3403,6.1749,5.9858,5.844,5.6516,0.0,0.0,0.0,0.0,0.0,0.0,0.0,0.0,0.0,0.0,0.0,0.0,0.0,0.0,0.0,0.0,0.0,0.0,0.0,0.0,0.0,0.0,0.0,0.0,0.0,0.0,0.0,0.0,0.0,0.0,0.0,0.0,5.1646,5.2443,0.0,0.0,0.0,0.0,0.0,0.0,0.0,0.0,0.0,0.0,0.0,0.0,0.0,5.8217,5.9612,6.1104,6.1949,6.2169,6.3527,6.3943,6.3429,6.3429,6.3429,6.3356,6.2095,0.0,5.8425,5.6701,0.0,0.0,0.0,0.0,0.0,0.0,0.0,0.0,0.0,0.0,0.0,0.0,0.0,0.0,0.0,0.0,0.0,0.0,0.0,0.0,0.0,0.0,6.0162,6.1765,6.2095,6.1875,0.0,5.8088,5.5538,5.6816,5.5497,0.0,0.0,0.0,0.0,0.0,0.0,0.0,6.4314,6.6429,6.7759,6.8038,6.7479,6.675,6.582,6.482,6.3243,6.0787,6.0441,5.9165,5.6582,5.5665,0.0,0.0,0.0,0.0,0.0,0.0,0.0,0.0,0.0,0.0,0.0,0.0,0.0,0.0,0.0,0.0,0.0,0.0,0.0,0.0,0.0,0.0,0.0,0.0,0.0,0.0,0.0,0.0,0.0,5.238,5.3995,5.5684,5.5207,5.4693,0.0,0.0,0.0,0.0,0.0,0.0,0.0,0.0,0.0,6.1386,6.2291,6.3135,6.3833,6.4971,6.5778,6.6242,6.6976,6.7393,6.7467,6.7467,6.7467,6.743,6.7063,6.6072,6.4371,6.0933,5.9024,5.818,0.0,0.0,0.0,0.0,5.6811,5.7141,5.7629,5.7997,0.0,5.6957,0.0,0.0,0.0,0.0,0.0,0.0,0.0,0.0,0.0,0.0,6.3453,6.4604,6.5228,6.5668,6.6132,6.4376,6.2273,0.0,5.9366,5.8337,5.7898,0.0,0.0,0.0,0.0,6.3415,6.6205,6.786,6.8814,6.8925,6.8722,6.8013,6.6673,6.582,6.4666,6.3051,6.2056,6.0825,5.9204,5.7857,5.6165,0.0,0.0,0.0,0.0,0.0,0.0,0.0,0.0,0.0,0.0,0.0,0.0,0.0,0.0,0.0,0.0,0.0,0.0,0.0,0.0,0.0,0.0,0.0,0.0,0.0,0.0,0.0,0.0,5.4876,5.6455,5.8657,5.84,5.8033,0.0,0.0,0.0,0.0,0.0,0.0,6.3038,6.3723,6.464,6.5888,6.71,6.7834,6.8017,6.8839,6.9522,7.0146,7.033,7.066,7.1027,7.107,7.0987,7.0767,7.085,7.056,6.9626,6.5059,6.2695,6.1851,6.0848,6.0113,5.9671,6.0026,6.0491,6.0968,6.1556,6.1863,6.1863,6.1055,5.9929,5.8767,5.796,0.0,0.0,0.0,0.0,6.0811,6.2438,6.4383,6.6182,6.7173,6.7871,6.8471,6.9123,6.8997,6.7826,0.0,6.3275,6.247,6.2011,0.0,0.0,0.0,0.0,6.5517,6.7872,6.913,6.9769,6.9819,6.9735,6.909,6.7552,6.6667,6.5743,6.4666,6.3205,6.2018,6.1172,5.9511,5.7896,5.6395,0.0,0.0,0.0,0.0,0.0,0.0,0.0,0.0,0.0,0.0,0.0,0.0,0.0,0.0,0.0,0.0,0.0,0.0,0.0,0.0,0.0,0.0,0.0,0.0,0.0,0.0,0.0,0.0,0.0,6.1227,6.1386,0.0,0.0,0.0,0.0,6.2499,6.3319,6.4837,6.726,6.7444,6.8531,7.0866,7.1013,7.1417,7.2202,7.301,7.3428,7.345,7.4221,7.4221,7.3538,7.3719,7.3349,7.259,7.2906,7.304,7.2667,6.8954,6.693,6.6035,6.447,6.3921,6.3898,6.3113,6.3898,6.5386,6.5423,6.5853,6.6243,6.5445,6.3481,6.1276,6.0456,6.0713,0.0,0.0,6.2561,6.4213,6.5852,6.693,6.7958,6.9559,6.9926,7.0041,7.0178,7.041,7.0285,0.0,6.7498,6.6196,6.6366,0.0,6.4726,6.5799,6.6907,6.7994,6.9077,7.0116,7.0748,7.071,7.012,6.9321,6.8391,6.7552,6.632,6.4705,6.3737,6.2897,6.2056,6.0358,5.905,5.8198,5.6472,0.0,0.0,0.0,0.0,0.0,0.0,0.0,0.0,0.0,0.0,0.0,0.0,0.0,0.0,0.0,0.0,0.0,0.0,0.0,0.0,0.0,0.0,0.0,0.0,0.0,0.0,0.0,0.0,6.5204,6.5057,0.0,6.5498,6.5534,6.6072,6.7393,6.8274,6.9559,7.1482,7.1555,7.2202,7.3582,7.3619,7.3729,7.4023,7.4331,7.4522,7.4676,7.497,7.5035,7.4917,7.4996,7.4949,7.4818,7.4962,7.5053,7.5043,7.371,7.1698,6.9271,6.816,6.7407,6.7049,6.7319,6.7862,6.8468,6.8988,6.9323,6.9373,6.8482,6.7235,6.5964,6.562,6.5657,6.5878,6.569,6.6513,6.7559,6.8044,6.9225,7.0518,7.1512,7.2281,7.2895,7.3467,7.3855,7.4098,7.4063,7.1395,6.9219,6.9557,6.883,6.8572,6.9636,6.9734,6.9996,7.0975,7.0954,7.0864,7.0864,7.0615,7.0129,6.9321,6.8436,6.7205,6.5551,6.4083,6.2935,6.2133,6.0979,5.9935,5.9088,5.8473,5.7428,0.0,0.0,0.0,0.0,0.0,0.0,0.0,0.0,0.0,0.0,0.0,0.0,0.0,0.0,0.0,0.0,0.0,0.0,0.0,0.0,0.0,0.0,0.0,0.0,0.0,6.3503,6.5765,6.8214,6.8531,6.8715,6.9279,6.9573,7.016,7.1211,7.2041,7.3105,7.4441,7.4515,7.4882,7.5674,7.5711,7.5711,7.5711,7.5711,7.5801,7.6,7.6059,7.621,7.6481,7.6591,7.6792,7.7028,7.7167,7.7266,7.7388,7.7182,7.5744,7.3515,7.2073,7.1044,7.0419,7.0775,7.0969,7.1102,7.157,7.1721,7.1548,7.0559,6.9865,6.9444,6.9322,6.9261,6.9224,6.9036,6.9381,6.9875,7.008,7.1191,7.2452,7.3157,7.4062,7.4926,7.554,7.5973,7.6319,7.6751,7.4449,7.2449,7.2566,7.2025,7.1739,7.2226,7.1881,7.171,7.209,7.1678,7.1321,7.1321,7.1091,7.0667,7.0167,6.9045,6.766,6.6019,6.4275,6.3045,6.2512,6.171,6.1089,6.0775,6.0494,5.9601,5.8097,0.0,0.0,0.0,0.0,0.0,0.0,0.0,0.0,0.0,0.0,0.0,0.0,0.0,0.0,0.0,0.0,0.0,0.0,0.0,0.0,0.0,0.0,0.0,6.4383,6.7026,6.9339,7.0146,7.1615,7.2569,7.2569,7.3303,7.378,7.378,7.4515,7.5307,7.6093,7.6145,7.6497,7.7304,7.7304,7.7304,7.732,7.732,7.7448,7.765,7.7776,7.7971,7.8257,7.8578,7.8828,7.9053,7.9459,7.9647,7.9665,7.9145,7.8931,7.8709,7.608,7.4731,7.4142,7.3338,7.3193,7.3296,7.3105,7.3026,7.2831,7.1764,7.142,7.142,7.142,7.1325,7.1229,7.1217,7.1144,7.1231,7.2036,7.2879,7.371,7.4502,7.5283,7.5934,7.623,7.6505,7.6827,7.7305,7.6717,7.5984,7.5474,7.4809,7.4149,7.353,7.336,0.0,7.2353,7.2252,7.2252,7.2252,7.1475,7.0975,7.0937,6.9436,6.7737,6.6051,6.432,6.3352,6.3352,6.2589,6.2557,6.3391,6.2573,6.1735,6.0928,0.0,0.0,0.0,0.0,0.0,0.0,0.0,0.0,0.0,0.0,0.0,0.0,0.0,0.0,0.0,0.0,0.0,0.0,0.0,0.0,0.0,6.7527,6.9362,6.8568,7.022,7.2018,7.3413,7.3949,7.4243,7.4243,7.4992,7.5432,7.5432,7.6188,7.6784,7.7177,7.7177,7.7393,7.7776,7.7813,7.7834,7.7949,7.7949,7.809,7.839,7.8431,7.866,7.9065,7.9188,7.941,7.9811,7.9906,8.0089,8.0268,8.0106,8.0049,7.9868,7.7713,7.6793,7.6627,7.649,7.6473,7.6436,7.5759,7.5491,7.5269,7.4374,7.4051,7.402,7.3893,7.3829,7.3846,7.4061,7.4249,7.4518,7.5205,7.5675,7.6171,7.678,7.7228,7.7699,7.8264,7.8708,7.9096,7.9414,7.9467,7.903,7.7645,7.6796,7.6294,7.6201,7.5139,0.0,7.4046,7.3514,7.3122,7.3122,7.2937,7.2514,7.1898,7.0821,6.9244,6.6904,6.5782,6.4897,6.4282,6.4012,6.4589,6.6013,6.5756,6.58,0.0,0.0,0.0,0.0,0.0,0.0,0.0,0.0,0.0,0.0,0.0,0.0,0.0,0.0,0.0,0.0,0.0,0.0,0.0,0.0,0.0,0.0,7.1055,7.3273,7.3508,7.3807,7.4368,7.527,7.6019,7.6475,7.6514,7.7264,7.7803,7.7938,7.838,7.8713,7.8891,7.895,7.9043,7.9214,7.9284,7.9317,7.9399,7.9399,7.9562,7.9852,7.994,8.0179,8.0617,8.0662,8.0916,8.1287,8.0983,8.1003,8.1195,8.0885,8.0749,0.0,0.0,0.0,0.0,0.0,7.8,7.7923,7.7382,7.7137,7.7006,7.6502,7.6064,7.574,7.5628,7.556,7.5548,7.5759,7.6127,7.6575,7.6949,7.743,7.7863,7.8175,7.8657,7.9123,7.9545,7.9906,8.018,8.0468,8.0676,0.0,7.9596,7.8753,7.8039,7.74,7.6438,7.5515,7.4776,7.4276,7.4007,7.4007,7.3699,7.343,7.3245,7.2129,0.0,0.0,0.0,6.6705,6.6199,6.6859,0.0,0.0,0.0,0.0,0.0,0.0,0.0,0.0,6.8094,6.896,0.0,0.0,0.0,0.0,0.0,0.0,0.0,0.0,0.0,0.0,0.0,0.0,0.0,0.0,0.0,0.0,7.4128,7.6699,7.8373,7.7487,7.6662,7.6617,7.7941,7.8885,7.8985,7.9679,8.0258,8.0651,8.0695,8.0819,8.1056,8.1107,0.0,0.0,0.0,8.1248,8.1275,8.1275,8.138,8.1645,8.1767,8.2042,8.2418,8.2515,8.2734,8.3018,8.2366,8.2202,8.2295,8.1561,8.117,8.1061,8.0705,8.0175,7.9497,7.8845,7.8601,7.8593,7.8365,0.0,0.0,7.8091,7.752,7.69,7.6891,7.6791,7.6728,7.6824,7.7293,7.7808,7.7913,7.8532,7.9104,7.9094,7.9656,8.0219,8.0297,8.0401,8.0531,8.0775,8.0877,8.0967,8.1077,8.04,7.9285,7.7823,7.7407,7.6746,7.52,7.4892,7.4853,7.4853,0.0,0.0,7.4776,7.3553,7.2052,7.036,6.9545,6.9122,6.9122,7.0629,7.1514,7.1629,7.2367,7.3206,7.4084,7.4892,7.5707,7.6515,7.4687,7.4264,0.0,0.0,0.0,0.0,0.0,0.0,0.0,0.0,0.0,0.0,0.0,0.0,0.0,0.0,0.0,7.5606,7.72,7.8631,8.0335,8.0315,8.0037,7.9834,8.0102,8.0302,8.0331,8.0594,8.1028,8.1806,8.1955,8.241,8.3329,8.2768,8.2598,8.2987,8.2394,8.2157,8.232,8.2331,8.2396,8.2572,0.0,0.0,8.3047,8.3037,8.3206,8.3393,8.3257,8.3248,8.3269,8.2439,8.1708,8.1085,8.1021,8.089,8.0752,8.0615,8.0546,8.0469,7.9715,7.9484,7.9361,7.8623,7.8277,7.8146,7.8075,7.8042,0.0,7.87,7.8968,7.9262,7.9871,8.0213,8.0402,8.0283,8.0481,8.0632,8.0569,8.0693,8.0822,8.0855,8.0967,8.1069,8.1093,8.04,7.97,7.9361,7.8169,7.7176,7.6823,7.6169,7.5745,7.5745,7.6245,7.6322,7.5784,7.6092,7.5592,7.386,7.3584,7.3469,7.3469,7.4476,7.5322,7.6053,7.6214,7.6714,7.7515,7.84,7.9246,8.0054,7.7661,7.6623,0.0,0.0,0.0,0.0,0.0,0.0,0.0,0.0,0.0,0.0,0.0,6.9995,7.2142,0.0,7.6742,7.8857,8.0005,8.117,8.2869,8.3083,8.2536,8.1078,8.1243,8.1722,8.2284,8.2777,8.3501,8.4667,8.4795,8.5135,8.5782,8.5475,8.5425,8.566,8.5344,8.519,8.5304,8.5304,8.5365,8.5503,8.5072,8.4959,8.5138,8.4717,8.4606,8.4737,8.4276,8.4173,8.4132,8.2824,8.2054,8.167,8.1246,8.1093,8.1093,8.1093,8.1093,8.1054,8.0592,8.0439,8.04,7.9939,7.9515,7.9123,7.9123,7.9107,7.9169,7.9503,7.9934,8.038,8.0762,8.0893,8.0918,8.0868,8.0893,8.0918,8.0868,8.0926,8.0991,8.0991,8.1061,8.1093,8.1093,8.0746,8.0285,7.9854,7.9092,7.84,7.7946,7.7522,7.7246,7.7246,7.7638,7.7715,7.7284,7.7292,7.6945,7.6053,7.6015,7.6015,7.6015,7.6823,7.7445,7.7907,7.8323,7.8746,7.9131,8.0439,8.1285,8.167,8.0831,8.0446,0.0,0.0,0.0,0.0,0.0,0.0,0.0,6.8006,7.025,7.0413,7.2947,7.5391,7.6331,7.8564,8.0613,8.1691,8.2621,8.3752,8.5429,8.5658,8.4854,8.2711,8.2958,8.3699,8.4607,8.5323,8.6304,8.7785,8.7908,8.8136,8.8651,8.847,8.8381,8.8433,8.8209,8.8115,8.8135,8.8135,8.8174,8.829,8.76,8.7292,8.7375,8.6522,8.6183,8.6223,8.5331,8.495,8.4777,8.3362,8.2708,8.2477,8.1631,8.1323,8.1323,8.117,8.1093,8.1093,8.1093,8.1093,8.1093,8.1093,8.0631,8.0046,8.0046,8.0046,8.0046,8.0046,8.0554,8.1093,8.1093,8.1093,8.1093,8.1093,8.1093,8.1093,8.1093,8.1093,8.1093,8.1093,8.1093,8.1093,8.1093,8.1093,8.0862,8.0162,7.9892,7.9554,7.8823,7.86,7.8484,7.8484,7.8638,7.883,7.8984,7.8407,7.8054,7.8054,7.8054,7.8054,7.8054,7.8792,7.9254,7.9254,8.0092,8.0554,8.0554,8.19,8.2631,8.2824,8.3516,8.3755,5.8178,6.0875,6.3851,6.5564,6.7565,6.9452,0.0,7.2662,7.4443,7.5798,7.7677,7.9371,8.0374,8.1537,8.2939,8.4706,8.5099,8.5759,8.745,8.7679,8.7562,8.7277,8.7084,8.7049,8.7186,8.7389,8.8189,8.9855,9.0056,9.085,9.2477,9.1187,9.0473,9.0646,8.9206,8.8493,8.8619,8.8619,8.8619,8.8628,8.8551,8.8521,8.8491,8.7607,8.7222,8.7192,8.6308,8.5538,8.4893,8.47,8.4132,8.337,8.2516,8.217,8.2093,8.1362,8.1093,8.1093,8.1093,8.1093,8.1093,8.1093,8.1016,8.0939,8.0939,8.0939,8.0939,8.0939,8.1016,8.1093,8.1093,8.1093,8.1093,8.1093,8.1093,8.1093,8.1093,8.1093,8.1093,8.1093,8.1093,8.1093,8.1093,8.1093,8.1054,8.0977,8.0285,7.9738,7.9669,7.8977,7.8484,7.8484,7.9208,7.9977,8.0746,8.0746,8.0669,8.0669,8.0669,8.0669,8.0669,8.1439,8.1862,8.1862,8.2716,8.3178,8.3178,8.337,8.3862,8.4632,8.4709,8.4324,6.1761,6.4199,6.6672,6.8915,7.1283,7.3486,7.5123,7.6827,7.8398,7.95,8.1109,8.2475,8.2968,8.425,8.5514,8.6374,8.6984,8.7759,8.8939,8.8709,8.8594,8.9054,8.9018,8.8863,8.8721,8.92,9.0036,9.1354,9.1978,9.266,9.3448,9.2843,9.2497,9.257,9.1417,9.0867,9.0902,9.0402,9.0133,9.0133,8.9633,8.9402,8.9363,8.8556,8.7872,8.7363,8.6478,8.5901,8.5555,8.5085,8.4709,8.4286,8.3409,8.2747,8.2208,8.14,8.1093,8.1093,8.1093,8.1093,8.1093,8.1093,8.1093,8.1093,8.1093,8.1093,8.1093,8.1093,8.1093,8.1093,8.1093,8.1093,8.1093,8.1093,8.1477,8.1785,8.1785,8.1785,8.1785,8.1785,8.14,8.1093,8.1093,8.1093,8.1093,8.1093,8.0785,8.0554,8.0554,8.0246,8.0015,8.0015,8.0323,8.0708,8.1054,8.1093,8.1285,8.1785,8.1785,8.2016,8.2516,8.287,8.3062,8.3062,8.3409,8.387,8.4362,8.4824,8.5247,8.5624,8.6132,8.5901,6.5507,6.7495,6.932,7.1965,7.4618,7.6981,7.8435,8.0272,8.1793,8.2376,8.362,8.4672,8.4822,8.5892,8.6962,8.7512,8.8205,8.9056,9.0124,8.9556,8.9248,8.9816,8.9701,8.9592,8.9621,9.0551,9.1615,9.2601,9.3494,9.4108,9.4403,9.4172,9.4057,9.4057,9.3249,9.2826,9.2826,9.1979,9.1556,9.1556,9.0663,9.0278,9.0239,8.9402,8.8556,8.7709,8.6824,8.6478,8.6401,8.5555,8.5239,8.5162,8.4286,8.3555,8.2901,8.2093,8.1516,8.1093,8.1093,8.1093,8.1093,8.1093,8.1093,8.1093,8.1093,8.1093,8.1093,8.1093,8.1246,8.1439,8.1439,8.1593,8.1785,8.1785,8.2208,8.267,8.267,8.267,8.267,8.267,8.1977,8.1439,8.1439,8.1439,8.1439,8.1439,8.1439,8.1362,8.1131,8.1093,8.1093,8.1093,8.1093,8.1093,8.1093,8.1285,8.167,8.2247,8.2516,8.2947,8.3563,8.3832,8.3947,8.3947,8.4409,8.4939,8.5593,8.6401,8.6824,8.6824,8.744,8.7286,6.9243,7.0894,7.2277,7.4842,7.7437,7.9604,8.0524,8.2671,8.4473,8.4512,8.5155,8.5795,8.594,8.5996,8.6607,8.8355,8.8679,8.9286,9.0941,9.0393,8.9855,8.9893,8.921,8.9056,8.9808,9.1423,9.2778,9.3595,9.4441,9.5326,9.6172,9.5403,9.4951,9.4951,9.4104,9.3672,9.3672,9.2864,9.2441,9.2441,9.1595,9.1171,9.1133,9.0239,8.944,8.8603,8.7748,8.7363,8.7286,8.644,8.6055,8.5978,8.517,8.4854,8.4709,8.3824,8.2485,8.1093,8.1093,8.1093,8.1093,8.1093,8.1093,8.1093,8.1093,8.1093,8.1093,8.1093,8.167,8.2247,8.2247,8.2909,8.3524,8.3524,8.3524,8.3563,8.3563,8.3563,8.3563,8.3563,8.2862,8.2247,8.2247,8.2247,8.2247,8.2247,8.2247,8.1977,8.1208,8.1093,8.1093,8.1093,8.1093,8.1093,8.1093,8.1823,8.2285,8.2285,8.3101,8.3563,8.3601,8.4401,8.4854,8.4854,8.6478,8.7286,8.7325,8.8218,8.8641,8.8641,8.8641,8.8179,7.0547,7.2533,7.4428,7.7577,7.9491,8.109,8.308,8.4195,8.481,8.481,8.5002,8.5049,8.4514,8.5321,8.6445,8.7632,8.8786,8.9902,9.1056,9.0432,8.9893,8.9893,8.9663,8.9586,8.9855,9.0941,9.221,9.3595,9.4527,9.5374,9.6249,9.6019,9.5865,9.5865,9.5018,9.4566,9.4566,9.371,9.3018,9.2479,9.1633,9.121,9.1171,9.0316,8.9739,8.944,8.8632,8.794,8.7363,8.7094,8.6632,8.6055,8.5786,8.5354,8.4854,8.4555,8.3747,8.2678,8.2093,8.19,8.1823,8.1285,8.1093,8.1093,8.1093,8.1477,8.19,8.19,8.2516,8.3178,8.3178,8.337,8.3601,8.3601,8.4055,8.4478,8.4478,8.4478,8.4478,8.4478,8.3747,8.3178,8.3178,8.3178,8.3178,8.3178,8.267,8.2016,8.1208,8.1093,8.1093,8.1093,8.1093,8.1323,8.1862,8.2131,8.2785,8.3939,8.4286,8.4709,8.5247,8.5555,8.5978,8.6555,8.7094,8.794,8.9047,8.9355,8.9517,8.9517,8.9517,8.9056,7.2621,7.4949,7.7078,7.9615,8.1362,8.2824,8.4132,8.467,8.47,8.4093,8.3978,8.3708,8.2862,8.3824,8.5209,8.6709,8.8363,8.9979,9.1479,9.1171,9.0825,9.0825,9.0278,9.0009,9.0316,9.0586,9.1556,9.3557,9.4527,9.5374,9.6249,9.6288,9.6288,9.6288,9.5749,9.5441,9.5441,9.4604,9.3595,9.2479,9.1941,9.1518,9.1171,9.0624,9.0355,9.0316,8.9479,8.8825,8.8286,8.7979,8.7363,8.6555,8.6555,8.6055,8.5316,8.5316,8.4978,8.4324,8.3178,8.2747,8.267,8.217,8.1977,8.1977,8.1977,8.2362,8.2747,8.2747,8.3401,8.4055,8.4055,8.4286,8.4478,8.4478,8.4939,8.5316,8.5316,8.5316,8.5316,8.5316,8.4632,8.4055,8.4055,8.4055,8.4055,8.4055,8.3593,8.2939,8.2093,8.1708,8.1631,8.1939,8.1708,8.1862,8.267,8.3054,8.3708,8.4816,8.517,8.5555,8.6094,8.6401,8.6824,8.7401,8.7979,8.8825,8.9893,9.0201,9.0355,9.0355,9.0355,8.994,7.5476,7.7977,8.0085,8.1054,8.3093,8.4632,8.3793,8.4209,8.4247,8.2477,8.2093,8.1862,8.1054,8.1593,8.3016,8.5555,8.7478,8.9526,9.2095,9.2479,9.2518,9.2556,9.1086,9.0432,9.1248,9.0586,9.1133,9.3595,9.4489,9.5335,9.6249,9.6288,9.6288,9.6288,9.6288,9.6288,9.6288,9.5451,9.4181,9.2556,9.2518,9.2056,9.121,9.121,9.121,9.1171,9.0316,8.9932,8.9855,8.9094,8.8256,8.744,8.7401,8.6901,8.6209,8.6132,8.6132,8.594,8.4294,8.3717,8.3678,8.3601,8.3601,8.3601,8.3601,8.364,8.3678,8.3678,8.4286,8.497,8.497,8.5517,8.6094,8.6094,8.6094,8.6094,8.6094,8.6094,8.6094,8.6094,8.547,8.497,8.497,8.497,8.497,8.497,8.497,8.4632,8.3717,8.287,8.267,8.3524,8.2862,8.2708,8.3601,8.4439,8.4931,8.5008,8.5747,8.6209,8.6247,8.7017,8.7478,8.7517,8.9086,8.9932,8.997,9.0778,9.121,9.121,9.121,9.074,7.7969,7.9785,8.1285,8.3393,8.3939,8.387,8.364,8.3247,8.2285,7.9946,7.9485,7.9215,7.8407,7.9477,8.1285,8.3824,8.6209,8.8632,9.1171,9.2095,9.271,9.3326,9.2979,9.2826,9.3018,9.2864,9.3249,9.4566,9.4258,9.4711,9.6211,9.6288,9.6288,9.6288,9.6288,9.6288,9.6288,9.5451,9.445,9.3403,9.2787,9.2056,9.121,9.121,9.121,9.121,9.0979,9.0509,8.9893,8.9663,8.9094,8.8295,8.7632,8.7671,8.7872,8.6594,8.6517,8.6901,8.5824,8.5055,8.4478,8.3832,8.3601,8.3601,8.3601,8.4055,8.4555,8.4555,8.517,8.5786,8.5786,8.594,8.6094,8.6094,8.6094,8.6094,8.6094,8.6094,8.6094,8.6094,8.594,8.5786,8.5786,8.5786,8.5786,8.5786,8.5786,8.5247,8.3793,8.3409,8.337,8.3563,8.3409,8.364,8.4478,8.4786,8.5431,8.6671,8.6978,8.7363,8.8025,8.8256,8.8632,8.9239,8.9663,9.0201,9.0855,9.1095,9.121,9.121,9.121,9.1095,7.9746,8.1554,8.3016,8.4055,8.3947,8.3293,8.217,8.1246,7.99,7.7361,7.6823,7.6592,7.5784,7.7015,7.9092,8.2024,8.4939,8.7979,9.1287,9.2826,9.3903,9.4749,9.448,9.4258,9.4258,9.3912,9.4057,9.4912,9.4566,9.4864,9.6249,9.6288,9.6288,9.6288,9.6288,9.6288,9.6288,9.5826,9.5134,9.4258,9.3441,9.2595,9.1748,9.1364,9.121,9.121,0.0,9.0932,9.047,9.047,8.9979,8.9171,8.8709,8.8594,8.8526,8.7171,8.6978,8.7286,8.6401,8.5786,8.5363,8.4863,8.4709,8.4709,8.4709,8.5055,8.5431,8.5431,8.5747,8.6094,8.6094,8.6094,8.6094,8.6094,8.6094,8.6094,8.6094,8.6401,8.6786,8.7171,8.694,8.6671,8.6671,8.6671,8.6671,8.6671,8.7017,8.6748,8.5448,8.4632,8.4324,8.467,8.4362,8.4516,8.5363,8.5786,8.6401,8.7325,8.7748,8.8179,8.8679,8.9017,8.944,8.9893,9.0278,9.071,9.121,9.121,9.121,9.121,9.121,9.121,8.1323,8.3208,8.4709,8.3947,8.3601,8.2747,8.0208,7.8784,7.7292,7.4707,7.4123,7.3853,7.3276,7.4514,7.6784,8.0208,8.3593,8.7248,9.1402,9.3527,9.5027,9.6019,9.5557,9.5181,9.5181,9.4489,9.4373,9.5104,9.5181,9.548,9.6249,9.6288,9.6288,9.6288,9.6288,9.6288,9.6288,9.6288,9.5865,9.4989,9.4104,9.3287,9.2479,9.1595,9.121,9.121,9.121,9.121,9.121,9.121,9.074,9.0047,8.9932,8.9556,8.891,8.794,8.7555,8.744,8.6602,8.6225,8.611,8.6094,8.6094,8.6094,8.6094,8.6094,8.6094,8.6094,8.6102,8.611,8.611,8.6126,8.6143,8.6143,8.6151,8.6159,8.6159,8.6852,8.7707,8.8593,8.8131,8.763,8.763,8.763,8.763,8.763,8.8285,8.8439,8.7553,8.6157,8.544,8.6055,8.547,8.5401,8.6209,8.6978,8.7478,8.7709,8.844,8.891,8.9026,8.971,9.0086,9.0086,9.0816,9.121,9.121,9.121,9.121,9.121,9.121,9.121,8.3623,8.4547,8.4854,8.4709,8.3593,8.187,7.9331,7.6976,7.463,7.2091,7.1014,7.0744,7.1245,7.2783,7.5014,7.8407,8.1793,8.5294,8.8872,9.1402,9.3489,9.5027,9.5711,9.6057,9.6057,9.5942,9.5903,9.6057,9.6057,9.6134,9.6288,9.6288,9.6288,9.6288,9.6288,9.6288,9.6288,9.6288,9.5865,9.4989,9.4104,9.3287,9.2479,9.1595,9.121,9.121,9.121,0.0,9.121,9.121,9.1133,9.0902,9.0163,9.0239,9.0594,8.9017,8.8487,8.838,8.7553,8.6777,8.6153,8.6118,8.6094,8.6094,8.6094,8.6094,8.6094,8.6094,8.6143,8.6168,8.6168,8.6308,8.6443,8.6443,8.6486,8.6489,8.6489,8.7153,8.7972,8.8868,8.8907,8.8791,8.8791,8.8791,8.8791,8.8791,8.8945,8.8713,8.7856,8.7272,8.6748,8.617,8.5978,8.6247,8.7094,8.7325,8.7979,8.9393,8.9624,9.0009,9.0748,9.0902,9.097,9.097,9.1133,9.121,9.121,9.121,9.121,9.121,9.121,9.121,8.3901,8.4555,8.4786,8.4324,8.2247,7.9677,7.7092,7.4553,7.2129,7.0045,6.9667,6.9821,7.0206,7.1668,7.3783,7.6707,8.0054,8.3632,8.7487,9.0594,9.3133,9.4797,9.5788,9.6288,9.6288,9.6288,9.6288,9.6288,9.6288,9.6288,9.6288,9.6288,9.6288,9.6288,9.6288,9.6288,9.6288,9.6288,9.6095,9.5672,9.4326,9.348,9.3095,9.1787,9.121,9.121,9.121,9.121,9.121,9.121,9.121,9.1171,9.08,9.0894,9.1095,8.9962,8.9531,8.9354,8.8081,8.7406,8.7009,8.6503,8.6322,8.63,8.6338,8.6353,8.6353,8.6353,8.6382,8.6419,8.6423,8.6485,8.6668,8.7171,8.732,8.7577,8.8429,8.8578,8.8926,9.025,9.014,8.983,8.983,8.983,8.983,8.983,9.0211,9.0011,8.8694,8.8421,8.7831,8.6515,8.6701,8.7102,8.7526,8.8334,8.9162,8.997,9.0342,9.074,9.1171,9.121,9.121,9.121,9.121,9.121,9.121,9.121,9.121,9.121,9.1672,9.1864,8.3486,8.4093,8.4362,8.3324,8.0754,7.7792,7.5046,7.2476,7.0167,6.8475,6.8552,6.9013,6.936,7.0667,7.2552,7.5284,7.8438,8.1939,8.6017,8.9517,9.2364,9.4258,9.5403,9.6095,9.6288,9.6288,9.6288,9.6288,9.6288,9.6288,9.6288,9.6288,9.6288,9.6288,9.6288,9.6288,9.6288,9.6288,9.6288,9.6288,9.4711,9.3864,9.3633,9.2172,9.1373,9.1236,9.1236,9.1262,9.1258,9.1258,9.1266,9.1292,9.1327,9.136,9.1314,9.0788,9.0499,9.0147,8.8649,8.8054,8.7799,8.6993,8.6615,8.6544,8.6597,8.6617,8.6617,8.6617,8.6636,8.6629,8.6645,8.666,8.6954,8.7883,8.8253,8.8797,9.0312,9.0069,9.0063,9.1617,9.135,9.0895,9.0895,9.0895,9.0895,9.0895,9.1467,9.1345,8.9791,8.9442,8.875,8.7181,8.7455,8.7845,8.8018,8.9331,9.0249,9.0426,9.0978,9.1275,9.1258,9.1258,9.1241,9.1236,9.1236,9.1227,9.121,9.121,9.1287,9.1479,9.2172,9.2595,8.3178,8.3678,8.3332,8.1747,7.99,7.7638,7.4353,7.1622,6.9321,6.759,6.6712,6.6705,6.8237,6.9276,7.1014,7.4284,7.7015,7.9946,8.3447,8.691,8.9949,9.2441,9.4143,9.5451,9.6211,9.6288,9.6288,9.6288,9.6288,9.6288,9.6288,9.6288,9.6288,9.6288,9.6288,9.6288,9.6288,9.6288,9.6288,9.6288,9.5335,9.4489,9.3672,9.2787,9.1985,9.1292,9.1292,9.1344,0.0,9.1485,9.1491,9.1557,9.1564,9.1607,9.1668,9.1604,9.1115,9.0376,8.9554,8.8743,8.7968,8.7281,8.6889,8.6675,8.6681,8.6681,8.6681,8.6681,8.6722,8.6762,8.6767,8.6904,8.7309,8.8233,8.9069,8.9888,9.0824,9.098,9.1172,9.2069,9.2186,9.2147,9.2147,9.2147,9.2147,9.2147,9.2186,9.1913,9.1058,9.0237,8.9376,8.8434,8.8128,8.8279,8.9017,8.9856,9.0674,9.1417,9.1518,9.1521,9.1485,9.1485,9.1415,9.13,9.1292,9.1249,9.121,9.121,9.1595,9.2364,9.2441,9.2903,8.1785,8.2439,8.2562,8.14,7.9015,7.6245,7.336,7.0744,6.8436,6.6744,6.6936,6.7628,6.8276,6.9507,7.1206,7.3584,7.5668,7.8169,8.1593,8.5016,8.8094,9.0633,9.2864,9.4566,9.5451,9.598,9.6288,9.6288,9.6288,9.6288,9.6288,9.6288,9.6288,9.6288,9.6288,9.6288,9.6288,9.6288,9.6288,9.6288,9.4864,9.4027,9.3681,9.2387,9.1608,9.1352,9.1454,9.1521,0.0,9.1668,9.1702,9.1735,9.1816,9.1865,9.1905,9.1967,9.1796,9.1356,9.0081,8.9426,8.8907,8.7632,8.7142,8.7046,8.7,8.6985,8.6985,8.6985,8.7007,8.7036,8.7098,8.7546,8.8104,8.8472,8.922,9.0118,9.0976,9.1171,9.1408,9.2264,9.242,9.242,9.242,9.242,9.242,9.242,9.242,9.2108,9.1252,9.0391,8.9532,8.8635,8.8839,8.9155,8.9483,9.0646,9.1488,9.1808,9.1773,9.1715,9.1682,9.1641,9.1825,9.2308,9.2249,9.2449,9.2965,9.2849,9.2991,9.3337,9.3785,9.4181,7.9592,8.04,8.0631,7.9785,7.7592,7.4899,7.2091,6.986,6.793,6.6244,6.7013,6.8084,6.8353,6.9584,7.1206,7.3161,7.4892,7.7092,8.0285,8.3632,8.6709,8.9248,9.1787,9.3787,9.4874,9.5788,9.6288,9.6288,9.6288,9.6288,9.6288,9.6288,9.6288,9.6288,9.6288,9.6288,9.6288,9.6288,9.6297,9.6295,9.4833,9.4013,9.3765,9.2399,9.1647,9.1506,9.1641,9.1767,0.0,9.1911,9.1915,9.1952,9.2064,9.21,9.2131,9.221,9.2093,9.1718,9.0323,8.9686,8.9232,8.78,8.7342,8.7307,8.7289,8.7267,8.7245,8.7245,8.725,8.7262,8.7328,8.7967,8.864,8.8644,8.9309,9.009,9.0715,9.1066,9.1341,9.1691,9.1964,9.2042,9.1808,9.1769,9.1847,9.212,9.216,9.2003,9.1653,9.0833,8.9974,8.9114,8.9495,8.9788,8.9712,9.0976,9.1832,9.2052,9.1986,9.1931,9.1938,9.1856,9.2225,9.3045,9.298,9.3323,9.4155,9.4072,9.4139,9.4359,9.4879,9.5203,7.663,7.7369,7.7138,7.6284,7.5399,7.386,7.0475,6.9045,6.793,6.6244,6.6558,6.7366,6.8237,6.9122,7.0545,7.3084,7.4892,7.6899,7.9431,8.2739,8.5863,8.841,9.0941,9.3172,9.4835,9.5788,9.6288,9.6288,9.6288,9.6288,9.6288,9.6288,9.6288,9.6288,9.6288,9.6288,9.6288,9.6288,9.6334,9.6394,9.5499,9.4745,9.4065,9.3176,9.2412,9.1804,9.187,9.2029,0.0,9.2218,9.2237,9.2292,9.2295,9.2349,9.2412,9.2412,9.1878,9.1077,9.0275,8.942,8.8566,8.7687,8.7418,8.7419,8.7461,8.7409,8.7289,8.7289,8.734,8.7397,8.7415,8.8043,8.8708,8.8711,8.9375,9.0,9.0,9.0703,9.1054,9.0195,9.0703,9.1054,9.0156,9.0039,9.0312,9.1172,9.1328,9.1601,9.2461,9.1836,9.0937,9.0078,8.9998,8.9945,8.9803,9.0614,9.1462,9.2256,9.2295,9.2267,9.22,9.2197,9.2506,9.3197,9.3192,9.3574,9.4317,9.4317,9.466,9.5393,9.5393,9.5762,7.329,7.4245,7.4476,7.363,7.2745,7.1514,6.9314,6.8129,6.7359,6.6827,6.7398,6.8244,6.9122,6.9975,7.1168,7.3161,7.4392,7.62,7.9354,8.2247,8.4939,8.7517,9.1056,9.398,9.5711,9.6134,9.6288,9.6288,9.6288,9.6288,9.6288,9.6352,9.6361,9.6288,9.6288,9.6315,9.6349,9.6349,9.6429,9.6511,9.5123,9.4396,9.4202,9.2871,9.2171,9.2004,9.2126,9.2228,0.0,9.2386,9.2412,9.2426,9.2442,9.2449,9.2457,9.2516,9.2015,9.1159,9.0307,8.941,8.8552,8.7733,8.746,8.746,8.75,8.7459,8.7455,8.7455,8.7457,8.7458,8.746,8.7656,8.789,8.789,8.8515,8.9101,8.9101,8.9804,9.0312,9.0039,9.0234,9.0312,9.0039,9.0,9.0078,9.0351,9.0937,9.1406,9.1679,9.1484,9.0976,9.0078,8.9453,8.9333,8.9905,9.0708,9.1513,9.2369,9.2434,9.2418,9.2405,9.2935,9.3608,9.442,9.4929,9.5608,9.6419,9.6266,9.6249,9.637,9.637,9.6466,6.9636,7.0667,7.0975,7.0405,7.0129,6.9513,6.7859,6.7282,6.7019,6.6712,6.759,6.8584,6.9122,7.0398,7.186,7.3276,7.4738,7.6669,7.9392,8.2285,8.5401,8.8902,9.2219,9.4749,9.6172,9.6325,9.6343,9.6343,9.6376,9.6411,9.6411,9.6459,9.6501,9.6476,9.6446,9.6437,9.6467,9.6534,9.6607,9.6725,9.5091,9.4349,9.4413,9.2803,9.2118,9.2238,9.2342,9.24,0.0,9.25,9.2552,9.2557,9.2525,9.2526,9.2528,9.2575,9.1834,9.0741,9.0195,8.9219,8.8164,8.7656,8.75,8.75,8.75,8.75,8.75,8.75,8.75,8.75,8.75,8.75,8.75,8.75,8.789,8.8242,8.8242,8.8906,8.9414,8.9101,8.9297,8.9414,8.9101,8.9062,8.914,8.9453,8.9961,9.0547,9.1211,9.1289,9.0976,9.0078,8.9492,8.9297,8.9491,9.0266,9.112,9.198,9.2365,9.2555,9.255,9.3009,9.3857,9.5013,9.5476,9.6296,9.748,9.7295,9.7157,9.7015,9.6953,9.6883,0.0,6.6827,6.6904,6.6904,6.759,6.7814,6.6244,6.6481,0.0,6.6134,6.7282,6.843,6.8468,7.0514,7.2476,7.3353,7.563,7.7938,7.9746,8.3093,8.7149,9.2044,9.4054,9.5363,9.6248,9.6376,9.6429,9.6437,9.6558,9.6607,9.6615,9.6691,9.6771,9.6809,9.6696,9.6653,9.663,9.674,9.6883,9.7019,9.5329,9.4611,9.4776,9.3029,9.2306,0.0,9.2481,9.2506,0.0,9.2573,9.2616,9.2617,9.2617,9.2617,9.2617,9.2617,9.1484,9.0,9.0,8.8906,8.75,8.75,8.75,8.75,8.75,8.75,8.75,8.75,8.75,8.75,8.75,8.75,8.75,8.75,8.75,8.75,8.75,8.8086,8.8398,8.7656,8.8086,8.8398,8.7617,8.75,8.7734,8.8515,8.8672,8.9297,9.0898,9.1172,9.0859,9.0,8.9922,8.957,8.8672,8.9453,9.0351,9.125,9.2109,9.2617,9.2614,9.2653,9.3429,9.4972,9.5126,9.6008,9.7604,9.7487,9.7436,9.7429,9.7222,9.7126,6.2864,0.0,6.5205,6.5205,6.5859,6.6397,0.0,6.6058,6.6288,6.675,6.7667,6.8584,6.9283,7.0937,7.2476,7.3353,7.563,7.8323,8.1285,8.639,9.0763,9.3399,9.465,9.5639,9.6506,9.6607,9.6645,9.6713,9.675,9.68,9.6809,9.6934,9.7001,9.7019,9.7168,9.7124,9.6977,9.7001,9.7126,9.7303,9.5592,9.4842,9.488,9.3203,9.2447,9.2499,9.2561,0.0,9.2573,9.2577,9.2617,9.2617,9.2617,9.2617,9.2617,9.2617,9.1484,9.0,9.0,8.8906,8.75,8.75,8.75,8.75,8.75,8.75,8.75,8.75,8.75,8.75,8.75,8.75,8.75,8.75,8.75,8.75,8.75,8.7656,8.7734,8.7539,8.7656,8.7734,8.7539,8.75,8.7578,8.7734,8.832,8.8867,8.9258,8.9883,8.9961,8.9101,8.9023,8.8672,8.7851,8.914,9.0351,9.125,9.2109,9.2617,9.2617,9.3242,9.3788,9.4178,9.5424,9.6623,9.7689,9.7636,9.7611,9.7533,9.7505,9.7477,6.1864,6.2749,6.3551,6.3891,6.4666,6.5282,6.5282,6.559,6.6019,6.6442,6.7552,6.866,6.9552,7.1706,7.363,7.4507,7.713,8.0392,8.4212,8.8953,9.2589,9.4022,9.5303,9.6268,9.6768,9.683,9.6889,9.6928,9.7004,9.7076,9.7147,9.725,9.7308,9.7328,9.7061,9.7,9.7236,9.7299,9.7383,9.7478,9.5785,9.5044,9.5041,9.3338,9.2566,9.2569,9.2575,0.0,9.2616,9.2617,9.2617,9.2617,9.2617,9.2617,9.2617,9.2617,9.1758,9.0547,9.0156,8.8906,8.75,8.75,8.75,8.75,8.75,8.75,8.75,8.75,8.75,8.75,8.75,8.75,8.75,8.75,8.75,8.75,8.75,8.75,8.75,8.75,8.75,8.75,8.75,8.75,8.75,8.75,8.7851,8.8281,8.8633,8.9101,8.9219,8.875,8.8711,8.8359,8.7578,8.8672,8.9765,9.0664,9.1914,9.2617,9.2617,9.3047,9.3476,9.3906,9.5585,9.6676,9.7138,9.7524,9.7672,9.7656,9.7641,9.7626,6.2018,6.2287,6.2518,6.3468,6.4359,6.4974,6.4974,6.5474,6.5936,6.6051,6.7321,6.8699,6.9706,7.2507,7.5014,7.6029,7.9445,8.3295,8.7277,9.0875,9.3438,9.4273,9.5932,9.6989,9.7007,9.7104,9.7162,9.7173,9.7328,9.7447,9.7415,9.7358,9.7356,9.7416,9.6564,9.642,9.7048,9.7309,9.7351,9.7218,9.5787,9.5063,9.4958,9.3317,9.2616,9.2617,0.0,0.0,9.2617,9.2617,9.2617,9.2617,9.2617,9.2617,9.2617,9.2617,9.1953,9.0976,8.9961,8.8672,8.75,8.75,8.75,8.75,8.75,8.75,8.75,8.75,8.75,8.75,8.75,8.75,8.75,8.75,8.75,8.75,8.75,8.75,8.75,8.75,8.75,8.75,8.75,8.75,8.75,8.75,8.75,8.7734,8.8437,8.8515,8.8515,8.8515,8.8515,8.8242,8.7578,8.8242,8.9023,8.9765,9.1445,9.2461,9.2578,9.2617,9.3008,9.3867,9.5469,9.6367,9.6484,9.7303,9.7692,9.7692,9.7718,9.771,6.2704,6.3121,6.3506,6.5089,6.609,6.6712,6.6712,6.6288,6.6096,6.6789,6.7705,6.8853,7.0437,7.2899,7.5267,7.6917,8.194,8.6444,8.8636,9.1947,9.4319,9.4668,9.6244,9.7352,9.7418,9.7432,9.7451,9.7517,9.7533,9.7554,9.7576,9.6935,9.6556,9.6598,9.5801,9.5417,9.5529,9.6217,9.6222,9.5577,9.5305,9.4801,9.4062,9.3047,9.2617,9.2617,0.0,9.2617,9.2617,9.2617,9.2617,9.2617,9.2617,9.2617,9.2617,9.2617,9.1562,8.9961,8.8437,8.7734,8.75,8.75,8.75,8.75,8.75,8.75,8.75,8.75,8.75,8.75,8.75,8.75,8.75,8.75,8.75,8.75,8.75,8.75,8.75,8.75,8.75,8.75,8.75,8.75,8.75,8.75,8.75,8.7539,8.7656,8.7695,8.7695,8.7695,8.7695,8.7617,8.75,8.8242,8.875,8.8906,9.0547,9.1836,9.2578,9.2617,9.3008,9.3867,9.4883,9.5742,9.6484,9.7304,9.7695,9.7695,9.7695,9.7694,6.2852,6.3622,6.4545,6.6705,6.7167,6.7212,6.7705,6.7898,6.8052,6.8436,6.9552,7.0975,7.2629,7.505,7.8031,8.1708,8.5172,8.7993,8.9826,9.2312,9.4193,9.4835,9.602,9.6992,9.7524,9.7576,9.7628,9.7636,9.7654,9.7433,9.697,9.6628,9.6242,9.5773,9.4958,9.4491,9.4491,9.4878,9.5112,9.5194,9.4725,9.4296,9.3867,9.3008,9.2617,9.2617,0.0,9.2617,9.2617,9.2617,9.2617,9.2617,9.2617,9.2617,9.2539,9.207,9.0781,8.9179,8.8437,8.7851,8.75,8.75,8.75,8.75,8.75,8.75,8.75,8.75,8.75,8.75,8.75,8.75,8.75,8.75,8.75,8.75,8.75,8.75,8.75,8.75,8.75,8.75,8.75,8.75,8.75,8.75,8.75,8.75,8.75,8.75,8.75,8.75,8.75,8.75,8.75,8.7851,8.8633,9.0039,9.0859,9.1679,9.2578,9.2617,9.2773,9.3203,9.4531,9.539,9.5781,9.707,9.7695,9.7695,9.7695,9.7695,6.2551,6.3622,6.4859,6.7237,6.7628,6.7667,6.8744,6.9513,7.0097,7.0541,7.1772,7.3325,7.5054,7.7701,8.1155,8.5823,8.7647,8.9085,9.0898,9.2597,9.3897,9.4634,9.5488,9.6288,9.6957,9.7279,9.7402,9.7402,9.7415,9.7146,9.6443,9.6093,9.5586,9.4922,9.4062,9.3594,9.3594,9.3594,9.3945,9.4609,9.4101,9.3789,9.3554,9.289,9.2617,9.2617,9.2617,9.2617,9.2617,9.2617,9.2461,9.2304,9.2304,9.2187,9.1875,9.1015,8.9844,8.8672,8.8476,8.8008,8.75,8.75,8.75,8.75,8.75,8.75,8.75,8.75,8.75,8.75,8.75,8.75,8.75,8.75,8.75,8.75,8.75,8.75,8.75,8.75,8.75,8.75,8.75,8.75,8.75,8.75,8.75,8.75,8.75,8.75,8.75,8.75,8.75,8.75,8.75,8.75,8.8398,9.0547,9.1054,9.1601,9.2265,9.25,9.2617,9.2617,9.4297,9.5195,9.5195,9.6875,9.7695,9.7695,9.7695,9.7695,6.171,6.2781,6.3814,6.5628,6.7205,6.8737,7.036,7.0783,7.131,7.2963,7.401,7.5168,7.7042,8.0237,8.3513,8.6339,8.8312,9.0127,9.1957,9.3057,9.3739,9.3886,9.4716,9.5308,9.5351,9.6093,9.6601,9.6601,9.6601,9.6562,9.6484,9.4961,9.4062,9.3984,9.3164,9.2695,9.2695,9.2695,9.2734,9.2812,9.3554,9.3476,9.2695,9.2617,9.2617,9.2617,9.2617,9.2617,9.2617,9.2617,9.2109,9.1406,9.1406,9.0898,9.0078,8.9219,8.8828,8.8594,8.7851,8.7539,8.75,8.75,8.75,8.75,8.75,8.75,8.75,8.75,8.75,8.75,8.75,8.75,8.75,8.75,8.75,8.75,8.75,8.75,8.75,8.75,8.75,8.75,8.75,8.75,8.75,8.75,8.75,8.75,8.75,8.75,8.75,8.75,8.75,8.75,8.75,8.75,8.789,8.8828,9.039,9.1328,9.1406,9.2187,9.2617,9.2617,9.4297,9.5195,9.5195,9.6875,9.7695,9.7695,9.7695,9.7695,6.2243,6.3083,6.3968,6.6782,6.8353,6.9513,7.0629,7.2171,7.3688,7.4963,7.636,7.7915,7.978,8.2179,8.4538,8.6689,8.8589,9.0228,9.1447,9.2426,9.3229,9.3781,9.4177,9.4609,9.5156,9.5508,9.5703,9.5703,9.5703,9.5469,9.4922,9.4258,9.3633,9.3125,9.2773,9.2617,9.2617,9.2617,9.2617,9.2617,9.2929,9.2929,9.2617,9.2617,9.2617,9.2617,9.2617,9.2304,9.1797,9.1797,9.1289,9.0508,9.0508,8.9961,8.914,8.8828,8.8398,8.789,8.7617,8.75,8.75,8.75,8.75,8.75,8.75,8.75,8.75,8.75,8.75,8.75,8.75,8.75,8.75,8.75,8.75,8.75,8.75,8.75,8.75,8.75,8.75,8.75,8.75,8.75,8.75,8.75,8.75,8.75,8.75,8.75,8.75,8.75,8.75,8.75,8.75,8.75,8.7617,8.7929,8.9531,9.0742,9.1289,9.2148,9.2617,9.2617,9.3789,9.4648,9.5195,9.6367,9.7226,9.7695,9.7695,9.7695,6.2243,6.332,6.4391,6.7282,6.9052,7.0443,7.1817,7.3937,7.6054,7.757,7.9138,8.065,8.1964,8.3447,8.5003,8.6582,8.8355,8.9838,9.068,9.1595,9.242,9.3006,9.332,9.3711,9.4336,9.4648,9.4804,9.4804,9.4804,9.4531,9.3945,9.3633,9.3203,9.2617,9.2617,9.2617,9.2617,9.2617,9.2617,9.2617,9.2617,9.2617,9.2578,9.2304,9.2187,9.2187,9.1914,9.1445,9.0898,9.0898,9.039,8.957,8.9297,8.8867,8.832,8.832,8.7969,8.75,8.75,8.75,8.75,8.75,8.75,8.75,8.75,8.75,8.75,8.75,8.75,8.75,8.75,8.75,8.75,8.75,8.75,8.75,8.75,8.75,8.75,8.75,8.75,8.75,8.75,8.75,8.75,8.75,8.75,8.75,8.75,8.75,8.75,8.75,8.75,8.75,8.75,8.75,8.75,8.75,8.9062,9.0273,9.0859,9.1992,9.2617,9.2617,9.3476,9.4179,9.4804,9.5937,9.6797,9.7344,9.7578,9.7695,6.1402,6.3326,6.5013,6.6712,6.9052,7.1611,7.4227,7.6174,7.8171,8.0949,8.2432,8.3237,8.3309,8.4091,8.5005,8.5844,8.7512,8.9014,8.9878,9.0741,9.1289,9.1289,9.207,9.2578,9.2617,9.3398,9.3906,9.3906,9.3906,9.3906,9.3906,9.3086,9.2617,9.2617,9.2617,9.2617,9.2578,9.2578,9.2578,9.2578,9.2578,9.2578,9.2578,9.1679,9.1289,9.125,9.0351,9.0,9.0,8.9961,8.9453,8.8594,8.7812,8.75,8.75,8.75,8.75,8.75,8.75,8.75,8.75,8.75,8.75,8.75,8.75,8.75,8.75,8.75,8.75,8.75,8.75,8.75,8.75,8.75,8.75,8.75,8.75,8.75,8.75,8.75,8.75,8.75,8.75,8.75,8.75,8.75,8.75,8.75,8.75,8.75,8.75,8.75,8.75,8.75,8.75,8.75,8.75,8.75,8.9062,9.0,9.0,9.1679,9.2617,9.2617,9.3437,9.3906,9.3906,9.5625,9.6484,9.6523,9.7304,9.7695,6.2435,6.4205,6.6051,6.8359,7.086,7.342,7.6038,7.7104,7.8507,8.1984,8.3548,8.4288,8.4341,8.5067,8.5787,8.608,8.757,8.8785,8.9062,8.9843,9.0625,9.1211,9.1523,9.1914,9.2539,9.2812,9.3008,9.3008,9.3008,9.3008,9.3008,9.2734,9.2617,9.2617,9.2617,9.2304,9.1679,9.1679,9.1367,9.0781,9.0781,9.1094,9.1679,9.1406,9.0976,9.0351,9.0117,8.9648,8.9023,8.8476,8.8086,8.7812,8.7578,8.75,8.75,8.75,8.75,8.75,8.75,8.75,8.75,8.75,8.75,8.75,8.75,8.75,8.75,8.75,8.75,8.75,8.75,8.75,8.75,8.75,8.75,8.75,8.75,8.75,8.75,8.75,8.75,8.75,8.75,8.75,8.75,8.75,8.75,8.75,8.75,8.75,8.75,8.75,8.75,8.75,8.75,8.75,8.75,8.75,8.9062,9.0,9.0,9.1679,9.2617,9.2617,9.2851,9.3281,9.3906,9.4414,9.5312,9.6523,9.6758,9.6875,6.3281,6.532,6.759,7.0468,7.2881,7.5236,7.7968,7.918,8.0493,8.3219,8.4288,8.4865,8.5292,8.5808,8.6164,8.6209,8.7342,8.8202,8.8203,8.8945,8.9687,9.0195,9.0586,9.0976,9.1523,9.1875,9.207,9.207,9.2383,9.2461,9.2109,9.207,9.1914,9.1562,9.1562,9.1328,9.0781,9.0781,9.0508,9.0,9.0,9.0078,9.0273,9.0273,8.9961,8.9453,8.914,8.8711,8.8203,8.7695,8.75,8.75,8.75,8.75,8.75,8.75,8.75,8.75,8.75,8.75,8.75,8.75,8.75,8.75,8.75,8.75,8.75,8.75,8.75,8.75,8.75,8.75,8.75,8.75,8.75,8.75,8.75,8.75,8.75,8.75,8.75,8.75,8.75,8.75,8.75,8.75,8.75,8.75,8.75,8.75,8.75,8.75,8.75,8.75,8.75,8.75,8.75,8.75,8.875,8.9648,9.0,9.1679,9.2617,9.2617,9.2617,9.2851,9.3398,9.3711,9.4453,9.5469,9.582,9.5976,6.3935,6.6506,6.9314,7.2661,7.5015,7.7164,7.9895,8.1767,8.32,8.4281,8.4659,8.5059,8.5933,8.6132,8.6211,8.6211,8.6914,8.75,8.75,8.8125,8.8633,8.8672,8.9414,8.9922,9.0,9.0703,9.1172,9.1172,9.1914,9.2031,9.1211,9.1172,9.082,9.0039,9.0,8.9961,8.9883,8.9883,8.9844,8.9765,8.9765,8.9375,8.8594,8.8672,8.8672,8.8554,8.7812,8.75,8.75,8.75,8.75,8.75,8.75,8.75,8.75,8.75,8.75,8.75,8.75,8.75,8.75,8.75,8.75,8.75,8.75,8.75,8.75,8.75,8.75,8.75,8.75,8.75,8.7461,8.7383,8.7422,8.75,8.75,8.75,8.75,8.75,8.75,8.75,8.75,8.75,8.75,8.75,8.75,8.75,8.75,8.75,8.75,8.75,8.75,8.75,8.75,8.75,8.75,8.75,8.8242,8.9101,8.9961,9.1601,9.2539,9.2617,9.2617,9.2617,9.2617,9.3398,9.3828,9.3906,9.4726,9.5078,6.4282,6.6974,7.0084,7.2815,7.6442,7.971,8.1087,8.1832,8.2485,8.3512,8.4347,8.4956,8.5156,8.5742,8.6211,8.6211,8.6914,8.75,8.75,8.7656,8.8008,8.8633,8.8867,8.9258,8.9922,9.0156,9.0273,9.0273,9.0469,9.0469,9.0273,9.0273,9.0195,9.0,9.0,8.9687,8.8984,8.8984,8.8672,0.0,8.8047,8.7929,8.7773,8.8398,8.8359,8.7734,8.7578,8.75,8.75,8.75,8.75,8.75,8.75,8.75,8.75,8.75,8.75,8.75,8.75,8.75,8.75,8.75,8.75,8.75,8.75,8.75,8.75,8.75,8.75,8.75,8.75,8.75,8.7344,8.664,8.6992,8.75,8.75,8.75,8.75,8.75,8.75,8.75,8.75,8.75,8.75,8.75,8.75,8.75,8.75,8.75,8.75,8.75,8.75,8.75,8.75,8.75,8.75,8.75,8.8242,8.9101,8.9961,9.1015,9.1914,9.2578,9.2617,9.2617,9.2617,9.2773,9.3242,9.3906,9.4101,9.4179,6.4782,6.7705,7.1188,7.5075,7.8451,8.0971,8.1639,8.1926,8.2212,8.2814,8.366,8.4412,8.4804,8.5273,8.5586,8.5586,8.5976,8.625,8.625,8.6601,8.7031,8.7461,8.7851,8.8281,8.875,8.914,8.9375,8.9375,8.9765,8.9804,8.9414,8.9375,8.9219,8.8828,8.8789,8.8594,8.8125,8.8125,8.789,8.75,8.75,8.75,8.75,8.7929,8.789,8.75,8.75,8.75,8.75,8.75,8.75,8.75,8.75,8.75,8.75,8.75,8.75,8.7422,8.7031,8.6875,8.6875,8.6875,8.6875,8.6953,8.7383,8.75,8.75,8.75,8.7187,8.6875,8.6875,8.6562,8.6133,8.5703,8.625,8.6758,8.6367,8.625,8.625,8.625,8.6601,8.6875,8.6875,8.7226,8.75,8.75,8.75,8.75,8.75,8.75,8.75,8.75,8.75,8.75,8.75,8.75,8.75,8.75,8.789,8.8515,8.9336,9.0195,9.1289,9.2578,9.2617,9.2617,9.2617,9.2617,9.2812,9.3281,9.3281,9.3281,6.4782,6.8321,7.2478,7.7181,7.9842,8.1375,8.1631,8.1897,8.2126,8.2287,8.2885,8.3592,8.4336,8.457,8.4687,8.4687,8.4804,8.4883,8.4883,8.5508,8.5976,8.5976,8.6601,8.7109,8.7265,8.789,8.832,8.8476,8.914,8.9258,8.8515,8.8476,8.8203,8.7539,8.75,8.75,8.75,8.75,8.75,8.75,8.7344,8.7265,8.7265,8.7109,8.7226,8.75,8.75,8.75,8.75,8.75,8.75,8.75,8.75,8.75,8.7461,8.7344,8.7265,8.7148,8.6289,8.5976,8.5976,8.5976,8.5976,8.6094,8.6836,8.7031,8.7031,8.7031,8.6523,8.5976,8.5976,8.5429,8.4844,8.4726,8.5234,8.5586,8.5039,8.4883,8.4883,8.4883,8.5586,8.6211,8.6211,8.6914,8.75,8.75,8.75,8.75,8.75,8.75,8.75,8.75,8.75,8.75,8.75,8.75,8.75,8.75,8.75,8.7851,8.8672,8.9375,9.0586,9.2344,9.2539,9.2617,9.2617,9.2617,9.2617,9.2617,9.2617,9.2617,6.316,6.8314,7.3703,7.5979,7.8527,8.0522,8.0741,8.1471,8.2126,8.2287,8.2379,8.25,8.2617,8.3242,8.3789,8.3789,8.4414,8.4883,8.4883,8.5,8.5078,8.5078,8.5195,8.5547,8.6289,8.6484,8.6836,8.7617,8.7773,8.7773,8.7656,8.7656,8.7617,8.75,8.75,8.75,8.75,8.75,8.75,8.75,8.6719,8.6367,8.6367,8.5586,8.6054,8.75,8.75,8.75,8.75,8.75,8.75,8.75,8.75,8.75,8.7422,8.664,8.6367,8.625,8.539,8.5078,8.5078,8.5078,8.5078,8.5117,8.5195,8.5234,8.5234,8.5234,8.5156,8.5078,8.5078,8.5,8.4726,8.3945,8.3867,8.4101,8.4765,8.4883,8.4883,8.4883,8.5586,8.6211,8.6211,8.6914,8.75,8.75,8.75,8.75,8.75,8.75,8.75,8.75,8.75,8.75,8.75,8.75,8.75,8.75,8.75,8.7851,8.8672,8.8828,8.9687,9.1445,9.2226,9.2617,9.2617,9.2617,9.2617,9.2617,9.2617,9.2617,6.3782,6.8321,7.258,7.4846,7.7143,7.9149,8.0288,8.1019,8.1577,8.2122,8.2261,8.2304,8.2304,8.2617,8.2851,8.2851,8.3203,8.3437,8.3437,8.3867,8.4179,8.4179,8.4609,8.5039,8.5429,8.5469,8.5625,8.6015,8.6054,8.6054,8.6054,8.6523,8.6758,8.6758,8.7265,8.75,8.75,8.7031,8.6523,8.6054,8.5664,8.5469,8.5469,8.5078,8.5586,8.6758,8.6758,8.7031,8.75,8.75,8.75,8.75,8.75,8.7187,8.6719,8.6328,8.5898,8.5351,8.4453,8.4179,8.4179,8.4179,8.4179,8.4258,8.4765,8.4883,8.4883,8.4883,8.4531,8.4179,8.4179,8.3828,8.3359,8.2969,8.2851,8.2969,8.3359,8.3437,8.3594,8.4062,8.4492,8.5039,8.6015,8.6523,8.6953,8.7422,8.75,8.7304,8.6836,8.6758,8.6562,8.6094,8.6484,8.6758,8.6758,8.7226,8.75,8.75,8.75,8.7656,8.8008,8.8476,8.9062,8.9844,9.1172,9.2109,9.2617,9.2617,9.2617,9.2617,9.2617,9.2344,6.3782,6.7366,7.0495,7.2918,7.5296,7.7456,7.9145,8.0215,8.1061,8.1763,8.2103,8.2304,8.2304,8.2304,8.2304,8.2304,8.2304,8.2304,8.2304,8.2851,8.3281,8.3281,8.3828,8.4336,8.4531,8.457,8.4648,8.4883,8.4883,8.4883,8.4883,8.5508,8.5976,8.6172,8.6836,8.7265,8.75,8.664,8.5742,8.4883,8.4687,8.457,8.457,8.4336,8.4726,8.5547,8.6015,8.6562,8.7187,8.7187,8.7187,8.7148,8.6914,8.6445,8.5859,8.5625,8.5117,8.4453,8.3554,8.3281,8.3281,8.3281,8.3281,8.3398,8.4023,8.4258,8.4258,8.4258,8.3789,8.3281,8.3281,8.2773,8.2304,8.2304,8.2304,8.2304,8.2304,8.2304,8.25,8.3125,8.3437,8.4023,8.5312,8.5703,8.6094,8.6758,8.6836,8.6601,8.5937,8.5859,8.5625,8.4961,8.5664,8.6211,8.6211,8.6992,8.75,8.75,8.75,8.75,8.75,8.8086,8.8476,8.8711,8.9961,9.1172,9.2265,9.2265,9.2265,9.2265,9.2265,9.1797,6.1787,6.4749,6.7731,6.9611,7.2684,7.552,7.6543,7.8874,8.085,8.1019,8.1713,8.2304,8.2304,8.2304,8.2304,8.2304,8.2304,8.2304,8.2304,8.2344,8.2383,8.2383,8.2422,8.2773,8.3594,8.3672,8.4023,8.4844,8.4883,8.4883,8.4883,8.4922,8.5351,8.6172,8.625,8.664,8.75,8.664,8.5742,8.4883,8.4062,8.3672,8.3633,8.2812,8.289,8.3828,8.5469,8.6211,8.6289,8.6289,8.6289,8.6172,8.5351,8.5,8.4883,8.4023,8.3711,8.3554,8.2656,8.2383,8.2383,8.2383,8.2383,8.2383,8.2422,8.2422,8.2422,8.2422,8.2383,8.2383,8.2383,8.2344,8.2304,8.2304,8.2304,8.2304,8.2304,8.2304,8.2304,8.2344,8.3047,8.3633,8.3711,8.4414,8.4961,8.5039,8.5039,8.5039,8.4961,8.4961,8.4961,8.4883,8.5664,8.6211,8.6211,8.6992,8.75,8.75,8.75,8.75,8.75,8.7539,8.7929,8.8672,8.8789,8.9687,9.1367,9.1367,9.1367,9.1367,9.1367,9.0898,5.9819,6.2512,6.5211,6.7513,7.037,7.317,7.5227,7.7092,7.8856,8.0577,8.1202,8.164,8.2187,8.2304,8.2304,8.2304,8.2304,8.2304,8.2304,8.2304,8.2304,8.2304,8.2304,8.2422,8.2734,8.2773,8.289,8.3203,8.3242,8.3242,8.3242,8.375,8.4219,8.4531,8.5625,8.6094,8.582,8.4961,8.4101,8.3242,8.289,8.2773,8.2773,8.2422,8.2461,8.2812,8.4023,8.4844,8.5351,8.5351,8.5351,8.5312,8.5039,8.457,8.4023,8.3711,8.3242,8.2734,8.2422,8.2304,8.2304,8.2304,8.2304,8.2304,8.2304,8.2304,8.2304,8.2304,8.2304,8.2304,8.2304,8.2304,8.2304,8.2304,8.2304,8.2304,8.2304,8.2304,8.2304,8.2304,8.2539,8.2929,8.3515,8.3867,8.4258,8.4804,8.4883,8.4687,8.414,8.4062,8.3867,8.3281,8.4023,8.4765,8.5312,8.6172,8.6914,8.7461,8.75,8.75,8.75,8.75,8.7656,8.7929,8.7929,8.8789,9.0469,9.0469,9.0469,9.0469,9.0469,9.0,5.8127,6.0512,6.2935,6.4942,6.7734,7.0648,7.2972,7.4859,7.6788,7.9127,7.9912,8.0429,8.1289,8.1445,8.1601,8.2187,8.2304,8.2304,8.2304,8.2304,8.2304,8.2304,8.2304,8.2304,8.2304,8.2304,8.2304,8.2304,8.2304,0.0,8.2304,8.2851,8.3281,8.3594,8.5,8.5351,8.4453,8.3906,8.3164,8.2304,8.2304,8.2304,8.2304,8.2304,8.2304,8.2344,8.289,8.3672,8.4453,8.4453,8.4453,8.4414,8.414,8.3672,8.3164,8.3164,8.2812,8.2304,8.2304,8.2304,8.2304,8.2304,8.2304,8.2304,8.2304,8.2304,8.2304,8.2304,8.2304,8.2304,8.2304,8.2304,8.2304,8.2304,8.2304,8.2304,8.2304,8.2304,8.2304,8.2304,8.2304,8.2461,8.3047,8.3164,8.3359,8.3945,8.4023,8.3828,8.3242,8.3164,8.2929,8.2344,8.3086,8.3945,8.4844,8.5703,8.6562,8.7422,8.75,8.75,8.75,8.75,8.75,8.75,8.75,8.8047,8.914,8.9414,8.957,8.957,8.957,8.9101,0.0,0.0,0.0,6.1826,6.4767,6.7905,6.9638,7.2251,7.4837,7.6669,7.7803,7.8711,7.9531,7.9687,8.0234,8.1953,8.2226,8.2265,8.2304,8.2304,8.2304,8.2304,8.2304,8.2304,8.2304,8.2304,8.2304,8.2304,8.2304,8.2304,8.2304,8.2304,8.2695,8.3554,8.4414,8.4414,8.3594,8.3554,8.3125,8.2304,8.2304,8.2304,8.2304,8.2304,8.2304,8.2304,8.2304,8.2773,8.3554,8.3554,8.3554,8.3476,8.2617,8.2304,8.2304,8.2304,8.2304,8.2304,8.2304,8.2304,8.2304,8.2304,8.2304,8.2304,8.2304,8.2304,8.2304,8.2304,8.2304,8.2304,8.2304,8.2304,8.2304,8.2304,8.2304,8.2304,8.2304,8.2304,8.2304,8.2304,8.2304,8.2304,8.2304,8.2304,8.2304,8.2304,8.2304,8.2304,8.2304,8.2304,8.2304,8.2304,8.3047,8.3906,8.4804,8.5664,8.6523,8.7422,8.75,8.75,8.75,8.75,8.75,8.75,8.75,8.75,8.75,8.8281,8.8672,8.8672,8.8672,8.8242,5.6439,0.0,0.0,0.0,0.0,0.0,6.8044,7.0463,7.3044,7.4834,7.6475,7.7812,7.8672,7.9297,7.9844,8.0351,8.0937,8.1562,8.2226,8.2304,8.2304,8.2304,8.2304,8.2304,8.2304,8.2304,8.2304,0.0,8.2304,8.2304,8.2304,8.2304,8.2695,8.3554,8.3203,8.3203,8.3594,8.2969,8.2539,8.2304,8.2304,8.2304,8.2304,8.2304,8.2304,8.2304,8.2304,8.2422,8.2656,8.2656,8.2656,8.2656,8.2383,8.2304,8.2304,8.2304,8.2304,8.2304,8.2304,8.2304,8.2304,8.2304,8.2304,8.2304,8.2304,8.2304,8.2304,8.2304,8.2304,8.2304,8.2304,8.2304,8.2304,8.2304,8.2304,8.2304,8.2304,8.2304,8.2304,8.2304,8.2304,8.2304,8.2304,8.2304,8.2304,8.2304,8.2304,8.2304,8.2304,8.2304,8.2304,8.2304,8.2539,8.3008,8.3906,8.4765,8.5625,8.6484,8.7148,8.75,8.75,8.75,8.75,8.75,8.75,8.75,8.75,8.7734,8.7812,8.7812,8.7812,8.7695,5.6401,5.7978,5.9204,6.005,0.0,0.0,6.6217,6.8144,7.0255,7.2451,7.4051,7.5312,7.6172,7.6992,7.7812,7.8555,7.9062,7.9961,8.1523,8.207,8.2304,8.2304,8.2304,8.2304,8.2304,8.2304,8.2304,8.2304,8.2304,8.2304,8.2304,8.2304,8.2539,8.3047,8.2578,8.2539,8.3047,8.2539,8.2304,8.2304,8.2304,8.2304,8.2304,8.2304,8.2304,8.2304,8.2304,8.2304,8.2304,8.2304,8.2304,8.2304,8.2304,8.2304,8.2304,8.2304,8.2304,8.2304,8.2304,8.2304,8.2304,8.2304,8.2304,8.2304,8.2304,8.2304,8.2304,8.2304,8.2304,8.2304,8.2304,8.2304,8.2304,8.2304,8.2304,8.2304,8.2304,8.2304,8.2304,8.2304,8.2304,8.2304,8.2304,8.2304,8.2304,8.2304,8.2304,8.2422,8.2812,8.2851,8.2851,8.2851,8.2851,8.3047,8.3554,8.4062,8.4883,8.6133,8.6679,8.7109,8.7461,8.75,8.75,8.75,8.75,8.75,8.75,8.75,8.75,8.75,8.75,8.75,5.6709,5.7786,5.8583,5.9319,6.0921,0.0,6.4343,6.5693,6.7296,6.9751,7.1117,7.2108,7.2851,7.3711,7.4844,7.6484,7.6914,7.7969,8.0625,8.1679,8.2187,8.2304,8.2304,8.2304,8.2304,8.2304,8.2304,8.2304,8.2304,8.2304,8.2304,8.2304,8.2304,8.2304,8.2304,8.2304,8.2304,8.2304,8.2304,8.2304,8.2304,8.2304,8.2304,8.2304,8.2304,8.2304,8.2304,8.2304,8.2304,8.2304,8.2304,8.2304,8.2304,8.2304,8.2304,8.2304,8.2304,8.2304,8.2304,8.2304,8.2304,8.2304,8.2304,8.2304,8.2304,8.2304,8.2304,8.2304,8.2304,8.2304,8.2304,8.2304,8.2304,8.2304,8.2304,8.2304,8.2304,8.2304,8.2304,8.2304,8.2304,8.2304,8.2304,8.2304,8.2304,8.2304,8.2304,8.2617,8.3476,8.3515,8.3476,8.3594,8.3515,8.3476,8.3476,8.3554,8.4258,8.582,8.6015,8.6445,8.7304,8.7344,8.7383,8.75,8.75,8.75,8.75,8.75,8.75,8.75,8.75,8.75,5.778,5.8627,5.9319,5.9473,6.0921,0.0,6.2822,6.4821,6.6785,6.7434,6.9357,7.1014,7.1172,7.1914,7.2851,7.3906,7.5234,7.7305,8.0547,8.1133,8.1523,8.2226,8.2304,8.2304,8.2304,8.2304,8.2304,8.2304,8.2304,8.2304,8.2304,8.2304,8.2304,8.2304,8.2304,8.2304,8.2304,8.2304,8.2304,8.2304,8.2304,8.2304,8.2304,8.2304,8.2304,8.2304,8.2304,8.2304,8.2304,8.2304,8.2304,8.2304,8.2304,8.2304,8.2304,8.2304,8.2304,8.2304,8.2304,8.2304,8.2304,8.2304,8.2304,8.2304,8.2304,8.2304,8.2304,8.2304,8.2304,8.2304,8.2304,8.2304,8.2304,8.2304,8.2304,8.2304,8.2304,8.2304,8.2304,8.2304,8.2304,8.2304,8.2304,8.2304,8.2304,8.2304,8.2304,8.2617,8.3476,8.3008,8.2812,8.3515,8.2969,8.2539,8.2539,8.3203,8.375,8.4101,8.4765,8.5547,8.6406,8.6445,8.6797,8.75,8.75,8.75,8.75,8.75,8.75,8.75,8.75,8.75,5.9819,6.0165,6.0358,6.1198,0.0,0.0,0.0,6.3841,6.4761,6.5328,6.6878,6.8118,6.8163,6.9218,7.039,7.125,7.2851,7.4844,7.7422,7.9297,8.0508,8.0937,8.1015,8.1172,8.1601,8.164,8.1836,8.2265,8.2304,8.2304,8.2304,8.2304,8.2304,8.2304,8.2304,8.2304,8.2304,8.2304,8.2304,8.2304,8.2304,8.2304,8.2304,8.2304,8.2304,8.2304,8.2304,8.2304,8.2304,8.2304,8.2304,8.2304,8.2304,8.2304,8.2304,8.2304,8.2304,8.2304,8.2304,8.2304,8.2304,8.2304,8.2304,8.2304,8.2304,8.2304,8.2304,8.2304,8.2304,8.2304,8.2304,8.2304,8.2304,8.2304,8.2304,8.2304,8.2304,8.2304,8.2304,8.2304,8.2304,8.2304,8.2304,8.2304,8.2304,8.2304,8.2304,8.2617,8.3476,8.3203,8.3125,8.3554,8.3203,8.2773,8.2344,8.2695,8.3125,8.3554,8.4023,8.4648,8.5508,8.5547,8.5742,8.6172,8.6211,8.6211,8.6211,8.6211,8.664,8.75,8.75,8.75,6.1959,6.1843,6.1612,0.0,0.0,6.2321,0.0,0.0,0.0,6.3682,6.4629,6.5296,6.5348,6.6484,6.7773,6.8828,7.0273,7.1875,7.3594,7.6367,7.8476,7.914,7.9375,7.9765,8.0469,8.0664,8.1054,8.1758,8.1953,8.2031,8.2031,8.2226,8.2304,8.2304,8.2304,8.2304,8.2304,8.2304,8.2304,8.2304,8.2304,8.2304,8.2304,8.2304,8.2304,8.2304,8.2304,8.2304,8.2304,8.2304,8.2304,8.2304,8.2304,8.2304,8.2304,8.2304,8.2304,8.2304,8.2304,8.2304,8.2304,8.2304,8.2304,8.2304,8.2304,8.2304,8.2304,8.2304,8.2304,8.2304,8.2304,8.2304,8.2304,8.2304,8.2304,8.2304,8.2304,8.2304,8.2304,8.2304,8.2304,8.2304,8.2304,8.2304,8.2304,8.2304,8.2304,8.2617,8.3476,8.3437,8.3398,8.3594,8.3437,8.3047,8.2344,8.2304,8.2617,8.332,8.3359,8.375,8.4609,8.4804,8.4883,8.4883,8.4883,8.4883,8.4883,8.4883,8.5703,8.7265,8.7265,8.7265,0.0,0.0,0.0,0.0,6.2844,0.0,0.0,0.0,6.2675,6.2881,0.0,6.4437,6.445,0.0,0.0,6.6914,6.8008,6.9219,7.0898,7.2148,7.4023,7.7109,7.8164,7.8672,7.8789,7.9414,7.9883,8.0,8.0703,8.1133,8.1133,8.1875,8.2304,8.2304,8.2304,8.2304,8.2304,8.2304,8.2304,8.2304,8.2304,8.2304,8.2304,8.2304,8.2304,8.2304,8.2304,8.2304,8.2304,8.2304,8.2304,8.2304,8.2304,8.2304,8.2304,8.2304,8.2304,8.2304,8.2304,8.2304,8.2304,8.2304,8.2304,8.2304,8.2304,8.2304,8.2304,8.2304,8.2304,8.2304,8.2304,8.2304,8.2304,8.2304,8.2304,8.2304,8.2304,8.2304,8.2304,8.2304,8.2304,8.2304,8.2304,8.2304,8.2304,8.2304,8.2304,8.2617,8.3476,8.2929,8.2734,8.3515,8.289,8.2422,8.2304,8.2304,8.2344,8.2422,8.2461,8.2851,8.3711,8.4492,8.4883,8.4883,8.4883,8.4883,8.4883,8.4883,8.539,8.6367,8.6367,8.6367,0.0,0.0,0.0,0.0,0.0,0.0,6.3119,0.0,6.1888,0.0,0.0,0.0,0.0,0.0,0.0,0.0,6.5781,6.6953,6.7656,6.8476,7.0312,7.3789,0.0,0.0,7.6875,7.7734,7.8476,7.8984,7.9765,8.0469,8.0976,8.1836,8.2304,8.2304,8.2304,8.2304,8.2304,8.2304,8.2304,8.2304,8.2304,8.2304,8.2304,8.2304,8.2304,8.2304,8.2304,8.2304,8.2304,8.2304,8.2304,8.2304,8.2304,8.2304,8.2304,8.2304,8.2304,8.2304,8.2304,8.2304,8.2304,8.2304,8.2304,8.2304,8.2304,8.2304,8.2304,8.2304,8.2304,8.2304,8.2304,8.2304,8.2304,8.2304,8.2304,8.2304,8.2304,8.2304,8.2304,8.2304,8.2304,8.2304,8.2304,8.2304,8.2304,8.2304,8.2304,8.2422,8.2812,8.2539,8.2422,8.2812,8.2539,8.2304,8.2304,8.2304,8.2304,8.2304,8.2304,8.2461,8.2812,8.3203,8.3398,8.3398,8.3398,8.3398,8.3398,8.3398,8.3828,8.4687,8.5195,8.5469,6.609,0.0,0.0,0.0,0.0,0.0,0.0,0.0,0.0,0.0,0.0,0.0,0.0,0.0,6.2734,6.2969,0.0,6.4961,6.5195,6.5781,6.7383,0.0,0.0,0.0,0.0,7.5625,7.6406,7.7031,7.8281,7.9414,8.0273,8.1367,8.2031,8.2304,8.2304,8.2304,8.2304,8.2304,8.2304,8.2304,8.2304,8.2304,8.2304,8.2304,8.2304,8.2304,8.2304,8.2304,8.2304,8.2304,8.2304,8.2304,8.2304,8.2304,8.2304,8.2304,8.2304,8.2304,8.2304,8.2304,8.2304,8.2304,8.2304,8.2304,8.2304,8.2304,8.2304,8.2304,8.2304,8.2304,8.2304,8.2304,8.2304,8.2304,8.2304,8.2304,8.2304,8.2304,8.2304,8.2304,8.2304,8.2304,8.2304,8.2304,8.2304,8.2304,8.2304,8.2304,8.2304,8.2304,8.2304,8.2304,8.2304,8.2304,8.2304,8.2304,8.2304,8.2304,8.2304,8.2304,8.2304,8.2304,8.2304,8.2304,8.2304,8.2304,8.2304,8.2304,8.2617,8.3242,8.414,8.4531,0.0,0.0,0.0,6.6461,0.0,0.0,0.0,0.0,6.1437,0.0,0.0,0.0,0.0,0.0,6.2031,6.2851,6.3047,0.0,0.0,6.4375,6.5351,6.8008,0.0,0.0,0.0,7.289,7.3437,0.0,7.5859,7.7656,7.8515,8.0156,8.1445,8.2265,8.2304,8.2304,8.2304,8.2304,8.2304,8.2304,8.2304,8.2304,8.2304,8.2304,8.2304,8.2304,8.2304,8.2304,8.2304,8.2304,8.2304,8.2304,8.2304,8.2304,8.2304,8.2304,8.2304,8.2304,8.2304,8.2304,8.2304,8.2304,8.2304,8.2304,8.2304,8.2304,8.2304,8.2304,8.2304,8.2304,8.2304,8.2304,8.2304,8.2304,8.2304,8.2304,8.2304,8.2304,8.2304,8.2304,8.2304,8.2304,8.2304,8.2304,8.2304,8.2304,8.2304,8.2304,8.2304,8.2304,8.2304,8.2304,8.2304,8.2304,8.2304,8.2304,8.2304,8.2304,8.2304,8.2304,8.2304,8.2304,8.2304,8.2304,8.2304,8.2304,8.2304,8.2304,8.2304,8.2344,8.3242,8.3633,0.0,0.0,6.7399,6.7465,0.0,0.0,0.0,0.0,0.0,0.0,0.0,0.0,0.0,6.2109,6.1797,6.2109,6.2148,6.2226,0.0,6.3086,0.0,6.5469,6.7148,6.875,0.0,0.0,0.0,7.2383,7.4844,0.0,7.7578,7.9765,8.1133,8.1445,8.1992,8.2304,8.2304,8.2304,8.2304,8.2304,8.2304,8.2304,8.2304,8.2304,8.2304,8.2304,8.2304,8.2304,8.2304,8.2304,8.2304,8.2304,8.2304,8.2304,8.2304,8.2304,8.2304,8.2304,8.2304,8.2304,8.2304,8.2304,8.2304,8.2304,8.2304,8.2304,8.2304,8.2304,8.2304,8.2304,8.2304,8.2304,8.2304,8.2304,8.2304,8.2304,8.2304,8.2304,8.2304,8.2304,8.2304,8.2304,8.2304,8.2304,8.2304,8.2304,8.2304,8.2304,8.2304,8.2304,8.2304,8.2304,8.2304,8.2304,8.2304,8.2304,8.2304,8.2304,8.2304,8.2304,8.2304,8.2304,8.2304,8.2304,8.2304,8.2304,8.2304,8.2304,8.2304,8.2304,8.2617,8.2734,6.9327,6.8877,0.0,6.8509,6.7186,0.0,6.5921,0.0,0.0,0.0,0.0,0.0,0.0,0.0,6.2148,6.2148,6.1914,6.1719,0.0,6.2187,6.2851,6.3711,6.539,6.6992,6.8437,6.9336,7.0156,7.1055,7.3515,7.5508,0.0,0.0,8.0664,8.0976,8.1836,8.2304,8.2304,8.2304,8.2304,8.2304,8.2304,8.2304,8.2304,8.2304,8.2304,8.2304,8.2304,8.2304,8.2304,8.2304,8.2304,8.2304,8.2304,8.2304,8.2304,8.2304,8.2304,8.2304,8.2304,8.2304,8.2304,8.2304,8.2304,8.2304,8.2304,8.2304,8.2304,8.2304,8.2304,8.2304,8.2304,8.2304,8.2304,8.2304,8.2304,8.2304,8.2304,8.2304,8.2304,8.2304,8.2304,8.2304,8.2304,8.2304,8.2304,8.2304,8.2304,8.2304,8.2304,8.2304,8.2304,8.2304,8.2304,8.2304,8.2304,8.2304,8.2304,8.2304,8.2304,8.2304,8.2304,8.2304,8.2304,8.2304,8.2304,8.2304,8.2304,8.2304,8.2304,8.2304,8.2304,8.2304]}]]